[{"header": {"dx": 0.06612293990616946, "dy": 0.0552356325346848, "nx": 98, "ny": 59, "la1": 35.046912555036876, "la2": 31.78801023549047, "lo1": -121.43107172385933, "lo2": -114.95102361305473, "refTime": "2026040819", "parameterCategory": 1, "parameterNumber": 2}, "data": [9.44, 9.44, 9.44, 10.43, 10.92, 11.42, 12.27, 12.74, 12.99, 13.39, 12.93, 11.03, 11.56, 10.47, 9.6, 7.33, 0.0, -1.2, -1.67, -3.32, -3.49, -4.83, -3.77, -3.97, -3.72, -3.91, -3.91, -3.91, -3.22, -3.76, -3.0, -2.6, -1.3, 0.0, 1.05, 2.16, 3.22, 4.19, 4.74, 5.15, 5.82, 6.99, 8.18, 8.73, 10.01, 11.39, 13.76, 14.55, 14.53, 12.29, 10.04, 10.0, 9.89, 10.28, 9.64, 8.43, 8.82, 9.2, 9.75, 10.18, 10.58, 10.14, 9.64, 9.21, 8.77, 7.94, 7.52, 8.41, 9.32, 11.09, 11.95, 11.62, 10.73, 10.28, 9.83, 9.83, 10.73, 11.62, 11.6, 5.6, 0.0, 0.0, 0.0, 2.0, 1.8, 4.4, 5.36, 6.26, 5.21, 0.96, -0.0, -0.0, -0.0, 1.5, 3.04, 4.93, 3.39, -0.0, 9.16, 9.44, 9.44, 10.43, 10.43, 11.42, 12.65, 12.65, 12.99, 12.99, 11.99, 12.04, 11.03, 10.28, 10.32, 9.13, 2.83, 0.0, -1.67, -2.06, -3.25, -4.6, -4.2, -4.37, -3.72, -4.19, -4.19, -4.19, -3.0, -3.0, -3.45, -2.32, -1.14, 0.0, 1.14, 3.22, 3.97, 3.97, 4.58, 4.87, 5.69, 6.95, 8.82, 9.17, 10.75, 12.48, 14.33, 14.88, 13.15, 10.47, 9.3, 9.2, 9.89, 9.83, 9.7, 9.75, 9.2, 9.45, 9.89, 10.32, 10.18, 10.14, 9.64, 9.39, 8.94, 8.05, 8.49, 8.94, 9.39, 10.73, 11.62, 11.62, 11.18, 10.28, 8.94, 8.94, 10.28, 11.62, 11.6, 5.6, 0.0, 0.0, 0.0, 2.0, 1.8, 4.4, 5.36, 6.26, 5.21, 0.96, -0.0, -0.0, -0.0, 1.5, 3.04, 4.93, 3.39, -0.0, 9.16, 9.44, 9.44, 10.43, 10.43, 10.92, 12.16, 12.65, 12.94, 12.36, 10.81, 8.82, 10.62, 10.21, 8.99, 8.8, 6.3, 0.0, 0.0, -1.39, -2.04, -4.8, -5.0, -5.7, -5.59, -4.29, -4.19, -3.0, -3.0, -2.82, -2.67, -1.96, -0.95, 0.0, 1.23, 3.4, 3.97, 4.42, 4.5, 5.21, 6.05, 8.37, 9.77, 10.73, 11.8, 12.43, 14.22, 12.96, 10.09, 8.07, 7.87, 8.8, 9.46, 9.83, 9.29, 9.33, 9.04, 9.89, 9.89, 10.18, 10.18, 10.28, 9.83, 9.39, 8.94, 8.49, 9.39, 10.28, 10.73, 11.18, 12.07, 12.42, 11.95, 10.18, 8.24, 8.24, 10.28, 12.3, 6.2, 0.0, 0.0, 0.0, 0.0, 0.0, 0.0, 1.7, 4.29, 6.07, 2.6, -0.0, -0.0, -0.0, -0.0, 2.82, 4.58, 5.95, 2.66, -0.0, 9.16, 9.16, 9.44, 9.97, 10.43, 11.33, 11.68, 12.16, 12.13, 11.53, 10.04, 8.68, 9.67, 8.23, 8.23, 8.23, 6.69, 2.6, 0.0, -0.98, -1.84, -3.11, -5.0, -6.45, -6.59, -6.14, -3.55, -3.0, -1.84, -1.84, -1.84, -2.57, -1.75, -1.4, 0.0, 2.99, 4.0, 5.1, 6.0, 7.63, 9.52, 11.4, 11.68, 10.38, 10.13, 9.92, 10.1, 7.81, 7.21, 6.87, 6.45, 8.15, 9.03, 9.39, 9.29, 9.46, 9.46, 9.54, 10.2, 10.2, 10.28, 10.28, 9.83, 9.83, 8.94, 9.39, 9.83, 10.28, 11.62, 12.52, 13.77, 13.81, 12.81, 9.77, 7.15, 7.44, 9.83, 12.52, 0.0, -6.0, 0.0, 0.0, 0.0, 0.0, 0.0, 2.2, 4.11, 5.2, -0.0, -0.0, -0.0, -0.0, 1.39, 2.95, 4.71, 4.74, 2.32, -0.0, 9.67, 9.16, 9.44, 9.97, 10.43, 10.43, 11.68, 11.68, 12.13, 11.09, 10.04, 8.3, 9.3, 8.72, 7.81, 6.98, 5.21, 2.42, 0.0, 0.0, -1.33, -1.45, -4.8, -5.77, -5.95, -7.15, -4.4, -2.83, -1.4, 0.0, 0.0, -0.89, -1.91, -1.91, 0.0, 1.39, 2.71, 6.3, 7.67, 8.9, 10.66, 10.46, 9.82, 9.02, 9.17, 8.97, 7.74, 8.15, 8.3, 7.6, 7.67, 8.0, 8.48, 9.39, 9.29, 9.74, 9.74, 9.76, 10.2, 10.28, 10.28, 10.28, 9.83, 9.83, 9.39, 9.83, 9.83, 9.39, 10.73, 12.07, 13.86, 15.34, 3.16, 0.0, 3.04, 4.46, 7.6, 9.83, -8.53, -8.85, 0.0, 0.0, 0.0, 0.0, 1.41, 2.98, 3.79, -0.0, -0.0, -0.0, 1.55, 1.33, 2.6, 3.55, 5.06, 4.43, 1.23, -0.0, 9.67, 9.67, 9.67, 9.97, 9.97, 10.43, 11.2, 11.33, 11.33, 11.39, 9.66, 7.64, 8.47, 8.72, 9.1, 6.98, 5.21, 3.34, 1.05, 1.0, 0.0, -1.98, -4.71, -5.8, -5.4, -5.4, -4.08, -2.71, -1.33, 0.0, 0.0, 0.85, 0.82, 1.0, 0.0, 0.96, 2.92, 5.81, 8.55, 8.4, 6.85, 7.13, 7.36, 8.64, 9.66, 10.41, 10.6, 10.18, 9.29, 9.39, 9.39, 8.67, 8.94, 9.39, 9.39, 9.83, 9.83, 9.83, 9.83, 10.73, 9.83, 9.83, 9.7, 9.26, 8.85, 9.74, 9.83, 8.94, 8.41, 10.18, 10.01, -0.0, -14.75, -12.52, -7.0, 0.0, 0.0, 0.0, -4.11, -5.21, 0.0, 0.0, 0.0, 0.0, 1.84, 6.01, -0.0, -0.0, -0.0, -0.0, -0.0, 1.77, 3.7, 4.58, 5.49, 4.74, 1.25, -0.0, 9.67, 9.67, 9.67, 9.97, 9.97, 10.43, 10.87, 10.87, 10.54, 10.98, 9.34, 7.31, 8.55, 8.99, 10.88, 8.58, 6.2, 3.47, 2.16, 2.06, 1.08, 0.0, -3.32, -4.6, -4.37, -3.2, -4.37, -2.81, -3.73, -2.6, -1.33, 0.89, 3.49, 4.2, 3.06, 1.15, 2.35, 5.46, 6.2, 3.46, 3.76, 3.73, 5.45, 7.44, 9.71, 9.64, 9.77, 9.6, 9.54, 10.28, 9.83, 9.39, 9.39, 9.39, 9.39, 9.39, 9.39, 9.83, 9.83, 9.83, 9.83, 9.29, 9.29, 8.85, 7.97, 8.85, 9.74, 8.94, 7.6, 8.77, 6.44, -0.0, -2.93, -11.9, -15.2, -13.99, -6.2, -3.8, -4.11, -5.46, -2.4, 0.0, 0.0, 0.0, 0.0, -0.0, -0.0, -0.0, -0.0, -0.0, -0.0, 3.82, 4.19, 5.49, 5.49, 4.19, 1.2, -0.0, 9.36, 9.67, 9.67, 9.67, 9.97, 9.97, 10.43, 10.43, 10.54, 9.89, 8.27, 6.58, 7.81, 8.94, 10.48, 9.2, 8.22, 5.6, 3.04, 3.14, 3.41, 2.24, 0.0, -2.57, -4.0, -3.69, -1.94, -5.09, -5.99, -4.98, -2.62, 0.0, 3.96, 5.6, 5.0, 2.45, 3.14, 10.0, 8.22, 1.64, 2.54, 3.98, 5.98, 6.9, 7.2, 7.1, 7.65, 8.58, 8.34, 9.96, 9.21, 9.39, 9.83, 9.83, 9.7, 9.74, 9.76, 9.83, 9.83, 9.83, 9.39, 9.39, 9.39, 8.05, 7.52, 7.97, 9.29, 8.94, 8.05, 7.45, 7.15, 6.17, 2.19, -0.0, -3.25, -5.6, -12.52, -5.4, -8.85, -11.9, -11.06, 0.0, 4.4, 4.8, 12.07, -0.0, -0.0, -0.0, -0.0, -0.0, 2.19, 3.22, 4.89, 5.95, 5.06, 2.82, 1.11, -0.0, 9.36, 9.67, 9.67, 9.67, 9.97, 9.97, 10.43, 10.43, 10.51, 9.56, 8.22, 6.45, 6.43, 6.3, 6.94, 8.24, 8.61, 6.21, 3.14, 3.04, 3.04, 3.14, 2.54, 1.33, 0.0, -2.19, -1.93, -6.2, -7.0, -4.52, -1.25, 0.0, 3.3, 6.2, 6.21, 3.19, 0.0, -2.6, -0.0, 0.0, 0.0, 3.2, 5.99, 4.93, 5.2, 3.92, 5.4, 6.98, 7.27, 7.68, 8.55, 8.4, 9.21, 9.64, 9.26, 9.03, 9.11, 9.97, 10.2, 9.32, 9.39, 8.94, 8.05, 6.71, 8.05, 8.49, 9.39, 8.94, 8.49, 8.05, 7.89, 9.21, 9.67, 3.82, 2.71, -0.0, -0.0, -0.0, -12.96, -14.42, -11.7, 0.0, 4.4, 8.06, 9.83, 8.55, 4.8, 2.71, 2.6, 4.4, 3.22, 4.29, 4.6, 4.74, 3.97, 1.84, 1.11, 1.0, 8.95, 9.36, 9.67, 9.67, 9.97, 9.97, 10.43, 10.01, 10.51, 9.53, 8.85, 8.37, 7.73, 7.89, 6.2, 5.55, 6.85, 6.1, 3.2, 2.91, 2.81, 2.81, 3.01, 3.68, 3.25, 9.39, -3.8, -2.1, -4.05, -1.77, -2.09, 0.0, 0.0, 13.86, 12.07, 10.6, -0.0, -2.09, -0.0, -0.0, 0.0, 2.54, 3.82, 4.5, 4.29, 3.97, 4.75, 6.42, 7.9, 6.98, 7.15, 7.15, 8.72, 8.72, 8.4, 9.04, 10.05, 10.46, 10.46, 9.63, 9.54, 7.31, 7.89, 7.5, 8.38, 8.41, 9.32, 9.33, 7.98, 8.41, 8.49, 10.73, 12.07, 11.62, 9.6, 4.4, 2.69, 2.83, -0.0, -13.86, -13.39, -9.17, 0.0, 7.21, 6.71, 6.94, 7.2, 7.07, 6.7, 4.84, 4.8, 4.4, 4.65, 3.91, 3.97, 2.82, 2.06, 1.84, 8.95, 9.36, 9.67, 9.97, 9.97, 10.01, 10.01, 10.01, 10.12, 9.85, 9.17, 9.4, 10.15, 10.9, 10.12, 7.36, 7.0, 7.0, 7.6, 6.9, 5.51, 4.59, 4.35, 0.0, -0.0, -0.0, 10.28, 0.0, 0.0, 0.0, -12.96, -4.1, -0.0, 3.53, 5.0, 6.7, 2.71, 1.84, 2.12, 3.2, 4.29, 3.65, 2.95, 4.66, 5.69, 5.59, 6.52, 6.9, 7.28, 6.79, 7.67, 7.67, 7.67, 6.98, 7.21, 8.37, 9.46, 9.16, 9.82, 9.09, 7.76, 6.99, 7.2, 8.3, 8.06, 8.17, 9.21, 8.79, 7.81, 7.4, 9.03, 10.32, 11.91, 11.62, 11.18, 11.18, 9.83, -0.0, -0.0, -0.0, -12.79, -8.68, 0.0, 4.1, 8.48, 7.15, 8.49, 8.49, 6.26, 4.92, 4.47, 4.34, 3.93, 4.11, 4.19, 3.2, 2.21, 1.96, 8.95, 9.36, 9.67, 9.53, 10.01, 10.01, 10.01, 10.01, 10.12, 9.48, 9.48, 9.8, 10.43, 11.44, 11.85, 11.34, 11.2, 12.95, 14.39, 14.79, 13.03, 10.99, 7.85, -12.52, -5.37, -4.74, -4.43, -2.53, -1.41, -0.0, -0.0, 1.03, 1.03, 1.03, 2.1, 3.82, 5.29, 4.75, 5.37, 6.18, 5.93, 7.6, 2.28, 3.7, 5.03, 6.0, 6.8, 6.32, 6.7, 6.01, 5.37, 6.9, 6.9, 6.28, 6.28, 7.07, 7.9, 7.73, 8.01, 8.03, 7.28, 7.28, 7.15, 7.15, 7.6, 8.67, 10.05, 9.46, 7.59, 7.9, 8.37, 9.32, 9.6, 8.23, 8.55, 8.22, 7.9, 10.28, -0.0, -0.0, 12.96, -5.4, -5.6, 0.0, 3.39, 6.64, 8.0, 9.11, 8.67, 6.94, 5.81, 4.92, 4.0, 4.98, 5.37, 4.19, 3.2, 3.2, 8.95, 8.95, 9.67, 9.53, 10.01, 10.01, 9.6, 9.31, 10.12, 9.8, 9.8, 10.12, 10.43, 11.44, 13.23, 13.86, 13.64, 12.22, 12.79, 13.21, 12.33, 10.14, 8.3, 6.26, -4.4, -4.52, -4.52, -4.8, -4.89, -4.02, -0.0, 0.96, 0.96, 0.96, 0.96, 2.32, 4.19, 6.52, 6.8, 6.8, 6.52, 6.71, 2.97, 2.83, 4.37, 5.06, 5.95, 7.07, 6.01, 4.46, 4.47, 5.06, 6.4, 7.15, 8.94, 8.4, 8.05, 0.0, -6.45, -6.71, 3.8, 8.0, 8.0, 6.01, 7.89, 7.52, 7.6, 9.89, 5.0, 4.58, 5.95, 5.46, 5.59, 4.83, 2.97, 0.0, -8.22, -7.59, -11.18, 10.73, 8.49, 8.49, -11.18, -13.41, 0.0, 3.96, 2.6, 5.21, 8.18, 7.07, 6.79, 5.2, 4.92, 5.36, 6.58, 5.37, 4.74, 3.45, 8.95, 8.95, 8.95, 9.24, 10.01, 9.7, 9.31, 9.73, 9.73, 10.12, 10.12, 10.12, 10.81, 11.44, 13.05, 14.1, 14.79, 14.42, 13.48, 12.73, 12.39, 12.4, 11.95, 11.4, 10.96, -10.28, -8.0, -5.37, -4.54, -3.91, -2.47, -0.0, -0.0, 0.96, 1.98, 3.22, 4.89, 6.4, 6.88, 6.79, 6.79, 6.94, 5.7, 3.53, 2.54, 4.29, 7.47, 9.83, 10.73, 10.73, 8.18, 10.18, 6.0, -0.0, 3.04, 5.2, 5.21, -0.0, -10.41, -4.74, -1.2, 2.17, 4.0, 8.49, 7.15, 6.79, 5.82, 4.81, 9.83, 0.0, 0.0, -2.6, -9.6, -9.33, -8.18, -11.18, -10.73, -8.94, -8.0, 0.0, 7.6, 8.94, -10.4, -9.48, 12.52, 13.41, -5.8, -3.25, 0.0, 5.06, 4.22, 5.06, 5.2, 6.07, 6.71, 6.58, 5.37, 4.43, 8.95, 8.95, 8.95, 9.7, 9.7, 9.7, 9.73, 9.73, 9.73, 9.73, 10.12, 10.81, 10.81, 11.49, 12.78, 13.65, 14.49, 14.79, 14.62, 14.23, 13.95, 13.1, 13.19, 13.56, 12.82, 12.04, -0.0, -2.83, -3.22, -2.95, -2.4, -0.61, -0.0, 1.73, 1.4, 3.91, 5.69, 6.88, 8.49, 7.15, 7.01, 7.21, 9.6, 4.8, 2.66, 3.72, 6.71, 3.47, 4.74, 8.18, 9.75, 7.27, -0.0, -0.0, -0.0, 4.22, 3.72, 2.06, -1.95, -1.84, -0.0, 1.58, 1.84, 3.4, 3.4, 3.4, 2.99, 4.2, 6.01, 7.15, -6.4, -8.03, -6.76, -4.36, -2.23, -2.97, -7.2, -8.05, -7.21, -6.8, -5.06, -7.6, -9.39, -10.73, -4.6, -0.0, -6.0, -10.0, 0.0, 3.6, 4.22, 3.4, 3.2, 6.0, 7.01, 6.14, 5.2, 5.2, 8.95, 8.95, 8.95, 9.7, 9.7, 9.7, 9.73, 9.73, 9.73, 9.73, 10.43, 10.81, 10.81, 11.49, 12.43, 13.05, 13.98, 14.1, 14.38, 14.7, 14.48, 13.84, 13.54, 14.05, 13.88, 13.27, 12.52, 11.03, 4.4, -0.0, -1.23, -0.82, -0.0, -0.0, 1.4, 3.2, 5.37, 6.99, 8.05, 7.6, 6.07, 4.84, 6.71, 2.12, 1.63, 7.15, -0.0, -0.0, 2.12, 1.98, 3.47, 2.12, 2.12, 2.12, 1.98, 4.43, 3.72, 2.26, 1.84, 1.67, 2.4, 3.4, 3.0, 3.0, 3.0, 3.2, 3.68, 6.01, 6.98, 5.58, -1.49, -3.65, -3.6, -2.28, -0.0, -0.0, -1.67, -8.94, -8.06, -6.7, -5.69, -5.37, -6.8, -8.05, -8.05, -4.43, -0.0, -6.95, 8.49, 5.37, 3.8, 0.0, 3.0, 6.4, 7.89, 6.71, 5.81, 5.81, 8.95, 8.95, 9.24, 9.4, 9.4, 9.7, 9.73, 10.04, 9.73, 9.73, 10.43, 10.43, 11.14, 11.49, 12.14, 12.68, 13.23, 13.71, 14.13, 14.38, 14.28, 13.69, 13.41, 13.63, 14.11, 14.71, 14.75, 14.3, 13.23, 11.45, 3.25, -0.0, -0.0, -0.0, 0.78, 1.63, 2.64, 3.97, 4.43, 4.11, 1.7, 3.22, 5.06, 6.26, 7.6, -0.0, -0.0, -0.0, -0.0, -0.0, 3.2, 2.26, 2.26, 3.97, 5.06, 5.06, 4.22, 4.46, 4.71, 5.36, 5.36, 5.69, 5.95, 5.58, 5.58, 4.65, 5.95, 5.72, 4.83, 1.84, -1.67, -4.54, -4.55, -1.44, -0.0, 1.84, 2.58, -0.0, -6.95, -6.32, -8.49, -7.63, -7.63, -7.63, -8.49, -6.71, -0.0, -0.0, 3.48, 8.05, -2.83, -1.58, 1.73, 5.69, 7.44, 5.95, 6.26, 6.26, 8.95, 8.95, 9.24, 9.7, 9.4, 9.8, 9.73, 9.73, 10.04, 10.04, 10.43, 10.75, 11.49, 11.49, 11.8, 12.07, 13.23, 13.42, 13.59, 13.15, 13.21, 13.26, 13.41, 13.29, 13.86, 15.2, 15.93, 15.39, 14.84, 14.11, 12.96, -0.0, -1.47, -0.0, -0.0, -0.0, -0.0, 1.52, 1.52, 1.98, 2.8, 3.2, 3.0, 1.73, 1.49, 2.99, 1.95, -0.0, -0.0, -0.0, -0.0, 3.4, 5.37, 5.37, 7.21, 7.21, 6.7, 6.7, 7.07, 7.07, 7.07, 6.7, 6.32, 6.36, 6.26, 5.64, 5.7, 6.4, 4.4, 2.19, -0.0, -1.91, -1.52, -0.0, 1.16, 3.3, 3.3, 2.39, 1.16, -0.0, -0.0, -1.03, -5.72, -9.39, -8.05, -7.6, -8.05, -0.0, 2.8, -0.0, -6.64, -3.6, 0.0, 4.96, 6.32, 3.4, 4.74, 4.74, 8.95, 8.95, 9.4, 9.7, 9.4, 9.8, 9.73, 9.73, 10.04, 10.43, 10.43, 10.75, 11.44, 11.44, 11.49, 13.36, 12.05, 12.65, 12.26, 12.04, 13.84, 15.02, 14.06, 13.29, 12.68, 14.13, 12.39, 12.65, 11.9, 9.48, 9.17, -0.0, -0.0, -0.0, -1.32, -1.23, -1.52, 1.7, 3.2, 3.72, 3.79, 3.49, 3.47, 3.0, 3.91, 5.69, 5.69, 3.6, -0.0, -0.0, 3.4, 3.4, 6.8, 6.8, 7.21, 7.63, 7.63, 8.06, 8.06, 8.06, 7.63, 7.21, 7.37, 6.14, 5.81, 5.81, 6.26, 6.61, 7.67, 7.59, 7.27, 7.9, 6.7, 5.4, 5.2, 4.8, 2.7, 1.09, 0.93, -0.0, -0.0, -0.89, -4.83, -8.18, -8.8, -8.0, -9.2, -7.9, -0.0, 3.11, -0.0, -5.69, -2.69, 0.0, 6.01, 0.0, 0.0, 0.0, 8.95, 8.95, 9.4, 9.4, 9.4, 9.43, 9.73, 9.73, 10.04, 10.43, 10.43, 10.75, 11.44, 11.44, 11.44, 11.8, 11.45, 11.8, 10.98, 11.42, 14.74, 14.79, 14.53, 13.42, 12.56, 12.65, 11.69, 10.01, 8.83, 2.63, 0.0, 10.73, -0.0, -0.0, -0.0, -0.0, -0.0, 2.6, 4.43, 5.01, 4.54, 4.19, 3.49, 3.16, 4.07, 6.52, 6.8, 5.37, 3.4, 3.4, 3.4, 5.37, 5.37, 5.37, 6.0, 6.64, 8.24, 7.45, 8.05, 8.49, 8.05, 7.6, 7.15, 7.15, 5.81, 5.81, 5.81, 6.61, 7.31, 8.24, 9.33, 12.08, 16.39, 18.21, 13.59, 5.4, 4.15, 1.76, 0.94, 0.94, 0.89, -0.0, -2.17, -5.1, -7.07, -7.15, -6.71, -6.71, -0.0, -0.0, 2.54, -4.0, -9.83, 0.0, 8.94, 8.94, 0.0, 0.0, 8.95, 8.95, 9.4, 9.4, 9.8, 9.43, 9.43, 9.73, 10.04, 10.75, 10.43, 10.75, 11.44, 11.44, 11.77, 11.77, 11.72, 11.45, 9.5, 10.87, 13.36, 14.03, 13.89, 12.87, 12.9, 13.97, 12.35, 9.73, 0.0, -3.82, -4.8, 8.49, -0.0, 3.8, -0.0, -0.0, -0.0, 2.6, 3.47, 4.74, 5.36, 4.43, 3.91, 4.01, 3.12, 5.37, 6.8, 6.8, 3.4, -0.0, 3.2, 5.06, 5.37, 5.37, 6.32, 6.13, 7.63, 7.94, 8.49, 8.05, 7.6, 7.6, 7.15, 7.15, 5.81, 5.64, 5.64, 6.17, 6.88, 8.24, 11.4, 13.86, 15.83, 15.9, 15.65, -0.0, -0.0, -0.0, -0.0, -0.0, 0.89, 0.85, -0.0, -1.96, -4.74, -5.36, -5.09, -5.2, -5.81, 6.71, -0.0, -0.0, -7.27, -7.6, 8.49, 8.49, 0.0, 0.0, 8.95, 8.95, 9.4, 9.4, 9.8, 9.43, 9.43, 9.73, 10.43, 10.75, 10.75, 10.75, 11.11, 11.44, 11.77, 12.08, 11.73, 11.72, 11.1, 12.45, 13.59, 14.03, 13.39, 12.29, 12.15, 13.11, 13.2, 12.65, 0.0, -10.0, -5.37, 6.26, 6.71, 4.74, 3.2, 3.0, 1.98, 1.55, 1.84, 3.47, 4.43, 4.43, 3.91, 2.47, 2.6, 3.22, 7.2, 3.4, -0.0, -0.0, 2.26, 4.22, 5.06, 5.06, 5.95, 6.8, 6.8, 8.41, 8.24, 6.7, 6.4, 7.01, 7.01, 6.71, 6.26, 5.64, 5.64, 6.14, 5.94, 7.47, 8.48, 10.73, 4.38, -5.09, -8.94, -6.2, -0.0, -3.9, -2.2, -0.0, 1.0, 0.8, 0.85, -0.0, -0.0, -1.14, -3.22, -4.43, -6.8, -9.39, -10.0, -3.25, -4.6, -5.06, 6.26, 7.15, 7.6, 7.6, 8.95, 8.95, 8.95, 9.4, 9.8, 9.43, 9.73, 10.12, 10.43, 10.75, 10.75, 10.75, 11.44, 11.44, 11.77, 11.77, 11.73, 11.64, 12.0, 13.41, 14.36, 14.14, 13.75, 13.2, 12.11, 11.91, 12.65, 12.81, 11.2, 9.83, 8.05, 6.71, 5.81, 5.36, 4.8, 4.11, 3.79, 1.55, 1.55, 3.22, 4.43, 3.76, 3.22, 1.72, 1.16, 1.55, 2.26, -0.0, -0.0, -0.0, 1.84, 4.22, 4.22, 3.97, 5.95, 5.95, 6.0, 6.57, 8.05, 4.74, 3.68, 6.08, 6.8, 6.79, 6.71, 5.81, 5.36, 6.51, 6.58, 6.36, 7.47, 4.46, -13.67, -8.49, -5.36, -9.83, -12.79, -8.93, -7.0, -2.28, -0.0, -0.0, -0.0, -0.0, 0.89, -0.0, -0.0, -1.96, -7.27, -11.4, -12.52, -10.0, -4.6, -3.48, 4.02, 5.81, 6.71, 6.71, 8.95, 8.95, 9.4, 9.4, 9.8, 9.43, 9.43, 10.12, 10.43, 10.75, 10.75, 11.06, 11.44, 11.06, 11.77, 11.77, 12.08, 11.64, 12.35, 13.28, 14.18, 13.86, 13.56, 12.92, 12.99, 11.87, 11.69, 11.8, 11.12, 10.8, 10.73, 8.94, 8.05, 7.15, 6.71, 6.36, 5.21, 3.22, 2.98, 2.98, 3.22, 4.43, 3.0, 1.03, -0.0, -0.0, -0.0, -0.0, -0.0, -0.0, 1.58, 3.4, 3.4, 3.97, 5.06, 5.95, 4.98, 6.0, 6.8, 6.0, 1.3, 3.0, 6.0, 6.71, 4.92, 5.81, 7.63, 8.94, 7.6, 7.15, 6.61, -0.0, -11.18, -5.7, -5.81, -4.92, -8.94, -11.2, -10.12, -5.31, -1.77, -0.0, -0.0, -0.0, 0.89, 0.94, -0.0, -0.0, -4.2, -7.15, -9.39, -7.6, -5.81, -4.47, 4.02, 5.36, -6.71, -6.71, 8.95, 8.95, 9.4, 9.4, 9.4, 9.8, 9.43, 10.12, 10.43, 10.75, 11.14, 10.75, 11.44, 11.44, 11.41, 11.73, 11.73, 12.0, 12.0, 12.96, 13.49, 13.97, 13.59, 13.56, 13.35, 12.36, 11.64, 11.2, 11.28, 11.5, 10.41, 10.0, 9.83, 8.94, 8.49, 8.05, 7.37, 5.95, 4.74, 3.47, 3.72, 3.72, 3.97, 1.63, -0.0, -1.14, -1.14, -0.0, -0.0, 0.89, 1.41, 2.82, 3.2, 3.2, 4.56, 5.06, 6.0, 4.98, 5.58, 6.36, 5.81, 0.0, 5.36, 4.47, 5.2, 7.63, 8.67, 8.33, 7.6, 6.71, 7.6, 7.06, -10.73, -9.75, -9.33, -7.89, -5.81, -4.66, -7.44, -7.24, -6.0, -3.44, -0.0, -0.0, 1.14, 0.94, 1.0, 1.0, -0.0, -2.8, -6.26, -7.81, -6.71, -5.36, 4.92, 5.81, 5.81, 5.81, 8.95, 8.95, 9.4, 9.4, 9.4, 9.8, 9.8, 10.12, 10.43, 10.43, 11.14, 11.14, 11.44, 11.44, 11.77, 11.73, 11.73, 12.35, 12.35, 12.35, 12.6, 13.3, 13.58, 13.86, 13.99, 13.19, 12.07, 11.44, 10.91, 10.55, 10.73, 10.8, 10.84, 10.28, 9.83, 8.94, 8.24, 7.6, 6.44, 5.37, 5.37, 6.32, 5.37, 2.4, -0.0, -1.63, -1.63, -1.23, -0.0, -0.0, 0.76, 1.35, 1.32, 2.66, 3.91, 4.56, 5.58, 5.21, 5.58, 5.95, 5.95, 5.06, -0.0, -0.0, 3.0, 6.32, 8.0, 7.89, 7.15, 6.61, 7.15, 8.94, 6.7, -11.62, -11.6, -11.87, -11.95, -6.58, -4.98, -6.32, -7.19, -6.4, -2.2, -0.0, -0.0, -0.0, 0.94, 2.67, 1.96, 0.89, -0.0, -6.64, -8.24, -6.4, 0.0, 6.71, -6.26, -6.26, 9.4, 9.4, 9.4, 9.4, 9.4, 9.8, 9.8, 9.8, 10.12, 10.43, 11.14, 11.14, 11.82, 11.11, 11.77, 12.08, 11.73, 12.35, 12.35, 12.35, 12.6, 13.12, 13.3, 13.58, 13.71, 13.29, 12.03, 11.35, 10.37, 10.61, 10.48, 10.68, 10.27, 10.75, 10.62, 10.28, 9.83, 9.7, 8.91, 8.3, 8.0, 7.6, 8.24, 7.2, -0.0, -2.4, -1.84, -1.4, -0.0, -0.0, -0.0, 0.7, 0.63, 1.35, 3.0, 3.72, 5.06, 3.72, 4.43, 5.24, 7.2, 6.64, 6.8, -0.0, -0.0, 4.71, 7.6, 7.5, 7.15, 7.15, 7.15, 7.6, 7.74, 8.3, 6.64, -11.18, -13.41, -10.73, -5.94, -5.95, -8.24, -7.93, -2.35, -0.0, -0.0, -0.0, 1.96, 1.84, 0.94, -0.0, -0.0, -2.32, -7.89, -8.06, -6.8, 0.0, -4.74, -4.74, 9.4, 9.4, 9.4, 9.4, 9.4, 9.8, 9.8, 9.8, 10.12, 10.12, 10.81, 11.14, 11.49, 11.49, 11.8, 11.44, 12.08, 12.08, 12.35, 12.35, 12.6, 12.82, 13.3, 13.12, 13.42, 12.97, 12.51, 11.28, 10.73, 10.25, 10.55, 10.4, 10.46, 10.41, 10.65, 10.28, 10.28, 9.83, 9.29, 9.26, 8.77, 8.77, 8.33, 8.06, 0.0, -8.05, -7.07, -2.82, -1.18, -0.0, -0.0, 0.76, 0.7, 1.35, 1.35, 2.8, 3.0, 3.0, 3.91, 5.24, 6.79, 7.52, 6.13, 2.66, 3.15, 5.46, 8.38, 7.6, 7.6, 7.6, 7.6, 8.05, 8.41, 7.6, 4.75, -0.0, -6.17, -9.83, -6.71, -6.45, -6.7, -9.48, -4.81, -0.0, -0.0, -0.0, 1.72, 1.01, -0.0, -0.0, -0.0, -0.0, -7.15, -7.89, -7.63, -5.69, -5.37, -5.37, 9.4, 9.4, 9.4, 9.4, 9.4, 9.8, 9.8, 10.48, 10.12, 10.12, 10.81, 11.14, 11.82, 11.82, 12.14, 11.8, 12.07, 11.73, 12.0, 12.0, 12.6, 12.82, 13.12, 13.12, 13.03, 12.27, 12.01, 11.53, 11.03, 10.48, 10.73, 11.03, 11.03, 10.91, 10.66, 10.2, 10.28, 9.83, 9.83, 9.83, 9.26, 8.82, 8.33, 7.6, 7.15, 0.0, -8.49, -4.46, -2.09, -0.0, -0.0, 0.76, 0.7, 1.35, 1.35, 1.76, 3.0, 3.2, 3.91, 4.74, 6.0, 7.21, 4.74, 3.6, 4.44, 7.28, 8.82, 8.05, 7.31, 7.31, 7.97, 8.05, 8.49, 8.24, -0.0, -0.0, -0.0, -4.29, -6.26, -6.71, -5.94, -10.04, -6.6, -0.0, -0.0, -0.0, -0.0, -0.0, -0.95, -0.0, 0.95, 1.03, -1.63, -7.37, -7.21, -3.6, -3.6, -3.6, 9.4, 9.4, 9.4, 9.4, 9.4, 9.8, 9.8, 10.48, 10.12, 10.12, 10.12, 11.14, 11.49, 11.82, 12.49, 12.14, 12.07, 12.07, 12.0, 12.0, 12.6, 12.82, 13.12, 13.12, 13.42, 12.47, 12.01, 11.53, 11.28, 10.79, 10.94, 11.2, 11.45, 11.35, 11.11, 10.66, 10.22, 10.28, 10.28, 9.83, 9.83, 9.39, 8.94, 7.89, 6.64, 7.37, 8.49, -1.96, -0.67, -0.0, 0.81, 0.81, 0.7, 1.35, 1.35, 1.55, 2.0, 2.48, 3.91, 4.43, 6.0, 6.4, 5.06, 4.46, 5.69, 6.7, 7.63, 8.94, 5.6, 6.32, 7.2, 7.5, 8.49, 7.59, -8.85, -7.13, -1.71, -0.0, -3.48, -5.81, -5.73, -9.33, -10.79, -4.52, -0.0, -0.0, -0.0, -0.0, -0.96, -0.0, 1.49, 2.99, -0.0, -7.6, -8.06, -6.01, -3.8, -3.8, 9.1, 9.1, 9.4, 9.4, 9.4, 9.8, 9.8, 10.48, 10.48, 10.81, 10.81, 10.48, 11.49, 11.49, 11.82, 12.14, 12.43, 12.43, 12.68, 12.68, 12.6, 12.91, 12.91, 13.12, 13.23, 12.85, 12.01, 11.53, 10.91, 11.03, 11.58, 11.77, 11.62, 11.56, 11.4, 11.11, 10.66, 10.22, 10.22, 10.28, 9.83, 9.83, 9.39, 8.38, 7.45, 8.05, 7.07, -0.0, -0.0, 0.59, 0.59, 0.66, 0.73, 1.55, 1.55, 1.55, 2.4, 2.4, 2.98, 4.11, 5.24, 6.32, 6.18, 6.7, 7.2, 6.8, 6.36, 7.37, 7.15, 5.06, 5.01, 6.26, 6.79, 7.59, -11.99, -11.87, -7.59, -1.76, -3.49, -7.2, -9.83, -8.94, -11.18, -12.72, -6.0, 3.68, 7.27, 3.47, -0.0, -1.41, -0.0, 2.2, 1.52, -5.37, -8.94, -8.0, -6.32, -6.32, 9.1, 9.1, 9.1, 9.4, 9.4, 9.8, 9.8, 10.48, 10.48, 10.81, 10.81, 10.81, 10.81, 11.82, 11.82, 12.14, 12.43, 13.15, 13.39, 13.39, 13.39, 13.61, 13.23, 13.23, 13.23, 12.65, 11.69, 10.81, 10.01, 10.29, 10.73, 11.58, 11.38, 11.34, 11.21, 10.96, 11.12, 10.66, 10.22, 10.22, 9.76, 9.83, 9.39, 8.94, 8.94, 9.11, 5.63, 2.54, 1.03, 0.96, 0.88, 0.81, 0.96, 1.83, 1.83, 1.41, 2.4, 2.4, 3.35, 4.11, 4.89, 6.6, 6.99, 6.99, 7.74, 7.52, 7.15, 7.6, 7.6, 7.6, 6.51, 6.13, 8.3, 9.33, -9.8, -13.59, -11.44, -6.97, -5.36, -9.13, -9.39, -9.64, -9.97, -11.62, -12.96, 13.41, 12.52, 11.02, 5.6, -2.6, -1.7, 1.3, 1.19, -2.4, -8.49, -8.48, -8.49, -8.49, 9.1, 9.1, 9.1, 9.4, 9.4, 9.8, 9.8, 10.12, 10.48, 10.81, 10.81, 10.81, 10.81, 11.15, 11.82, 12.14, 12.52, 12.78, 12.78, 13.39, 13.39, 13.61, 13.61, 13.23, 12.85, 12.47, 12.01, 10.55, 10.19, 10.37, 9.34, 9.42, 9.89, 10.99, 10.92, 10.78, 10.96, 10.52, 10.47, 10.04, 10.22, 9.76, 9.83, 9.39, 9.39, 9.11, 8.18, 4.0, 3.6, 2.66, 2.66, 2.49, 2.32, 2.16, 1.99, 1.66, 2.3, 2.2, 3.35, 3.48, 4.12, 6.57, 7.89, 7.31, 7.52, 7.6, 7.15, 7.15, 8.05, 8.33, 7.07, 7.44, 7.81, 9.03, -0.0, -14.11, -9.64, -7.47, -6.9, -9.21, -10.28, -10.41, -10.84, -11.03, -11.2, 12.96, 12.3, 11.91, 8.48, -3.2, -5.06, -0.0, 1.55, -0.0, -6.36, -8.49, -8.05, -8.05, 9.1, 9.1, 9.1, 9.1, 9.4, 9.8, 9.8, 10.12, 10.48, 10.81, 10.81, 11.14, 10.81, 11.15, 11.49, 12.14, 12.52, 12.52, 12.78, 13.39, 13.39, 13.76, 13.61, 13.93, 12.85, 12.47, 12.01, 11.18, 11.25, 10.63, 10.12, 9.17, 9.67, 10.16, 10.79, 10.5, 10.78, 10.35, 10.52, 10.04, 10.04, 9.54, 9.76, 9.83, 9.39, 9.83, 9.54, 7.81, 4.96, 3.8, 3.4, 3.0, 3.0, 2.6, 1.99, 1.83, 2.3, 2.07, 2.79, 2.84, 5.72, 6.08, 6.8, 7.45, 7.06, 7.15, 7.15, 6.71, 8.05, 8.33, 7.4, 8.72, 9.21, 9.29, 11.53, -13.99, -12.07, -11.18, -11.18, -11.18, -11.18, -11.18, -11.62, -11.62, -11.62, 0.0, 9.48, 11.99, 11.18, -2.83, -4.84, -4.43, -0.0, -0.0, -4.11, -8.05, -8.05, -8.05, 9.1, 9.1, 9.1, 9.1, 9.8, 9.8, 9.8, 10.12, 10.81, 10.81, 11.14, 11.14, 11.14, 11.15, 11.15, 11.49, 12.16, 12.16, 12.42, 12.78, 13.73, 13.73, 13.73, 13.73, 13.54, 12.85, 12.59, 11.18, 10.9, 10.63, 10.48, 10.35, 10.24, 9.86, 10.62, 10.38, 10.5, 10.35, 10.35, 9.85, 9.75, 9.6, 9.76, 9.83, 9.83, 9.83, 9.83, 9.11, 7.81, 4.96, 3.8, 3.6, 3.4, 3.2, 2.8, 2.99, 2.53, 2.3, 2.79, 3.16, 3.43, 6.08, 6.8, 7.45, 7.37, 7.37, 6.61, 7.06, 7.52, 7.52, 7.31, 8.77, 9.21, 11.06, 13.15, 9.48, -12.58, -12.3, -13.23, -12.96, -12.07, -12.07, -12.07, -12.52, -12.52, 0.0, 10.43, 12.3, -0.0, -2.12, -5.21, -5.09, -3.79, -0.0, -2.2, -5.37, -8.06, -8.06, 9.1, 9.1, 9.48, 9.48, 9.8, 9.8, 10.12, 10.12, 10.81, 10.81, 11.14, 11.14, 11.14, 11.15, 11.15, 11.49, 12.16, 12.16, 12.42, 12.78, 13.35, 13.73, 13.73, 14.07, 13.35, 12.85, 12.59, 11.42, 10.55, 9.96, 10.79, 10.99, 10.55, 10.4, 10.88, 10.38, 10.5, 10.08, 10.08, 9.85, 9.85, 9.33, 9.11, 9.76, 9.74, 10.14, 10.08, 9.83, 8.91, 7.81, 6.32, 5.1, 4.83, 4.56, 4.29, 4.02, 2.99, 2.76, 2.79, 3.16, 3.78, 4.27, 7.47, 6.88, 7.31, 8.33, 7.5, 7.97, 8.05, 7.6, 8.49, 7.52, 9.7, 9.76, 12.42, 12.07, 8.22, -12.58, -14.75, -15.65, -13.86, -11.62, -10.73, -10.73, -10.73, 11.18, 11.18, 8.4, -0.0, -1.98, -5.21, -5.94, -4.8, -2.84, -1.6, -4.11, -6.01, -6.01, 9.17, 9.17, 9.48, 9.48, 10.18, 9.8, 10.12, 10.48, 10.81, 10.81, 11.14, 11.14, 11.14, 11.49, 11.15, 11.15, 12.16, 12.16, 12.16, 12.78, 13.14, 13.35, 14.07, 14.07, 13.68, 12.97, 12.59, 12.01, 10.55, 9.96, 10.03, 10.56, 10.6, 11.21, 11.03, 11.03, 10.38, 10.5, 10.08, 10.08, 9.55, 9.33, 9.16, 8.85, 8.3, 7.87, 9.2, 9.75, 9.83, 8.91, 7.44, 6.01, 4.83, 4.56, 4.56, 4.29, 3.22, 2.99, 2.79, 3.48, 3.78, 4.0, 7.45, 7.08, 7.31, 8.33, 7.06, 7.6, 8.05, 7.6, 7.6, 7.52, 9.39, 10.73, 12.52, 12.27, 11.18, -8.85, -15.34, -16.09, -12.72, -8.8, -8.05, -8.05, -3.6, -0.0, -0.0, 3.48, 2.2, -1.84, -4.43, -5.21, -4.66, -4.0, -2.53, -2.0, -2.26, -4.46, 9.17, 9.17, 9.48, 9.48, 10.18, 10.18, 10.12, 10.12, 10.81, 10.81, 11.14, 11.14, 11.14, 11.49, 11.49, 11.15, 11.15, 12.16, 12.16, 12.78, 13.14, 13.14, 13.49, 14.07, 13.68, 13.29, 12.21, 12.01, 11.18, 9.96, 9.26, 10.12, 10.18, 10.58, 10.79, 11.13, 10.7, 10.5, 10.5, 10.08, 9.55, 8.99, 8.48, 8.41, 7.89, 7.27, 6.71, 7.59, 9.75, 9.83, 7.44, 6.01, 5.69, 5.37, 4.56, 4.29, 4.02, 2.99, 2.79, 3.48, 3.48, 4.0, 7.06, 6.64, 7.08, 8.05, 8.05, 7.15, 7.6, 7.6, 7.15, 8.05, 8.94, 9.83, 13.01, 0.0, -10.28, -10.01, -14.84, -16.54, -12.3, -8.91, -8.49, -6.4, -3.48, -0.0, 3.79, 4.8, -0.0, -2.6, -4.11, -5.2, -5.2, -5.2, -3.48, -4.0, -2.6, -2.26, 9.17, 9.17, 9.17, 9.48, 10.18, 10.18, 10.51, 10.12, 10.81, 10.81, 11.14, 11.14, 11.14, 11.49, 11.49, 11.15, 11.15, 11.52, 12.16, 12.16, 13.14, 13.14, 13.49, 13.49, 13.68, 13.29, 12.33, 11.63, 11.18, 9.9, 9.26, 8.97, 9.76, 10.2, 10.58, 10.5, 10.5, 10.5, 10.5, 9.77, 9.6, 9.4, 8.4, 8.24, 8.48, 7.59, 3.82, 0.0, 9.2, 9.39, 8.48, 7.07, 5.69, 5.37, 5.37, 4.29, 4.02, 3.35, 3.07, 3.07, 3.48, 3.78, 4.8, 7.45, 7.6, 7.6, 7.15, 7.15, 7.5, 7.5, 7.6, 7.6, 8.94, 9.83, 10.73, -10.04, -10.28, -8.77, -12.07, -13.41, -11.71, -9.83, -8.05, -6.71, -5.81, 5.81, 6.71, 6.71, -0.0, -0.0, -4.11, -5.64, -5.64, -7.15, -6.26, -5.36, -3.79, -2.6, 9.17, 9.17, 9.17, 9.48, 9.48, 10.18, 10.18, 10.51, 10.48, 11.2, 10.81, 10.81, 11.14, 11.49, 11.15, 11.15, 11.15, 11.52, 11.8, 12.16, 12.52, 12.52, 13.1, 13.49, 13.49, 13.49, 13.04, 11.94, 10.45, 9.9, 9.26, 8.97, 9.08, 9.81, 10.4, 10.32, 10.32, 10.6, 10.5, 9.77, 9.6, 9.2, 8.6, 8.58, 9.33, 10.79, 0.0, 0.0, 8.49, 8.49, 8.49, 8.06, 6.7, 6.32, 5.37, 5.72, 4.74, 4.11, 3.35, 3.07, 3.48, 3.48, 5.72, 6.4, 7.37, 7.37, 7.15, 7.81, 7.01, 7.5, 8.05, 7.97, 8.77, 8.94, 8.67, 9.39, -11.62, -10.73, -9.39, -8.94, -6.26, -6.26, -4.92, -7.15, 7.6, 7.6, 7.15, 7.15, -0.0, -0.0, -6.0, -6.07, -6.26, -8.05, -8.05, -7.15, -6.71, -6.71, 8.85, 8.85, 9.17, 9.17, 9.48, 9.85, 10.18, 10.51, 10.86, 10.86, 11.2, 11.2, 10.81, 11.15, 11.15, 11.15, 11.15, 11.52, 11.52, 11.8, 12.52, 12.52, 12.52, 13.1, 13.1, 13.43, 13.04, 12.64, 11.16, 9.56, 9.62, 8.53, 8.97, 9.76, 9.81, 10.04, 10.15, 9.9, 9.9, 9.77, 9.77, 9.2, 8.99, 8.99, 10.0, 11.78, 10.28, 8.05, 7.6, 7.15, 7.6, 7.63, 7.63, 7.2, 6.8, 6.08, 4.74, 4.43, 4.11, 3.35, 3.79, 3.48, 3.78, 6.8, 6.8, 6.8, 7.37, 7.6, 7.15, 7.6, 8.05, 7.97, 9.21, 8.49, 9.21, 7.07, 2.17, -7.59, -9.39, -7.89, -7.37, -7.15, -8.49, -10.28, 10.28, 9.39, 5.37, 3.2, -0.0, -0.0, -3.6, -5.95, -7.15, -8.05, 8.49, 8.49, 8.49, 8.49, 8.85, 8.85, 9.17, 9.17, 9.48, 9.85, 10.18, 10.18, 10.52, 10.86, 10.86, 11.2, 11.2, 11.15, 11.15, 11.15, 11.15, 11.52, 11.52, 11.8, 12.16, 12.52, 12.52, 12.89, 13.1, 13.1, 13.04, 12.64, 11.5, 10.55, 9.62, 8.93, 8.97, 9.42, 9.76, 9.67, 10.23, 10.15, 9.74, 9.9, 9.03, 8.82, 8.55, 8.55, 9.6, 10.7, 10.22, 8.94, 8.49, 8.05, 7.15, 7.15, 7.37, 7.37, 6.8, 6.8, 5.72, 4.74, 4.43, 4.11, 3.35, 3.79, 3.78, 6.08, 6.8, 6.8, 7.81, 8.05, 7.15, 7.6, 7.97, 8.17, 8.6, 9.29, 9.39, 8.0, 6.32, 6.14, -0.0, -12.07, -12.71, -13.41, -14.75, -13.15, -12.52, -0.0, 2.69, 2.12, 2.8, -0.0, -2.26, -2.26, -6.4, -8.94, 8.94, 8.94, 8.94, 8.94, 8.85, 8.85, 9.17, 9.17, 9.48, 9.85, 10.18, 10.18, 10.86, 10.86, 10.86, 11.2, 11.2, 11.15, 11.15, 11.15, 11.15, 11.52, 11.52, 11.52, 11.87, 12.52, 12.52, 12.89, 12.89, 13.1, 13.04, 12.47, 11.5, 10.55, 9.96, 9.26, 8.53, 8.97, 9.34, 9.67, 9.9, 9.84, 9.84, 9.6, 9.03, 9.03, 8.82, 8.55, 8.82, 9.55, 9.42, 9.32, 8.94, 8.49, 8.05, 7.6, 7.15, 6.94, 7.37, 6.8, 5.72, 5.36, 4.43, 4.43, 4.11, 4.19, 4.19, 4.46, 6.9, 7.47, 7.89, 7.06, 7.6, 7.5, 8.77, 8.17, 8.6, 9.32, 9.83, 9.03, 8.15, 8.54, 8.59, 9.17, -16.54, -18.59, -18.78, -16.54, -13.86, -7.9, -0.0, 3.8, 2.54, -0.0, -0.0, -4.43, -7.15, -6.01, 0.0, 0.0, 0.0, 0.0, 8.85, 8.85, 9.17, 9.17, 9.17, 9.85, 9.85, 10.18, 10.86, 10.86, 10.86, 10.86, 11.2, 11.15, 11.15, 11.15, 11.15, 11.52, 11.52, 11.52, 11.52, 12.26, 12.52, 12.52, 12.89, 12.89, 12.72, 12.47, 11.5, 10.9, 9.96, 8.85, 9.26, 8.93, 9.34, 9.66, 9.56, 9.9, 9.52, 9.45, 8.88, 8.67, 8.42, 8.82, 8.82, 9.2, 8.99, 8.79, 8.6, 8.82, 8.49, 8.05, 7.6, 7.6, 7.15, 6.4, 6.4, 5.72, 5.36, 4.43, 4.11, 4.54, 4.19, 4.46, 5.2, 7.89, 8.05, 7.15, 7.15, 7.52, 7.74, 8.17, 8.85, 9.39, 9.32, 9.11, 9.11, 9.97, 9.45, 9.32, 13.19, -18.33, -19.22, -16.66, -13.15, -10.0, -0.0, -0.0, -0.0, -0.0, 7.15, 4.92, -6.26, -5.06, 0.0, 0.0, 0.0, 0.0, 8.85, 8.85, 9.17, 9.17, 9.48, 9.85, 9.85, 10.18, 10.18, 10.86, 10.86, 10.86, 11.2, 11.2, 11.15, 11.15, 11.15, 11.52, 11.52, 11.52, 11.52, 12.26, 12.26, 12.52, 12.52, 12.89, 12.51, 12.47, 11.88, 11.28, 9.96, 9.17, 9.17, 9.26, 9.26, 9.66, 9.66, 9.56, 9.52, 9.14, 8.55, 8.67, 8.42, 8.06, 8.43, 8.43, 8.6, 8.58, 8.37, 8.6, 8.38, 7.89, 8.05, 8.05, 7.15, 6.94, 6.4, 6.4, 5.36, 5.36, 4.43, 4.11, 4.19, 4.46, 4.66, 8.33, 7.6, 7.6, 8.05, 7.52, 8.24, 8.43, 8.49, 8.94, 9.39, 9.39, 9.39, 9.76, 9.54, 9.54, 9.96, -15.2, -18.78, -17.64, -14.39, -9.17, -4.8, -0.0, -0.0, 5.36, 4.92, 0.0, 0.0, 0.0, 0.0, 0.0, 0.0, 0.0, 8.85, 8.85, 9.17, 9.17, 9.17, 9.48, 10.18, 10.18, 10.18, 10.52, 10.86, 10.86, 10.86, 11.2, 10.81, 10.81, 10.81, 11.2, 11.2, 10.86, 11.17, 11.52, 12.26, 12.26, 12.52, 12.52, 12.51, 12.13, 11.88, 11.28, 10.73, 9.59, 9.17, 8.85, 9.26, 9.27, 9.66, 9.56, 9.19, 9.14, 8.76, 8.55, 7.95, 8.06, 8.06, 8.43, 7.81, 8.21, 8.0, 8.22, 8.06, 8.38, 7.94, 7.89, 7.6, 6.94, 6.0, 6.0, 6.0, 5.01, 5.01, 4.11, 4.19, 3.84, 4.09, 7.47, 7.45, 7.6, 8.05, 7.6, 8.49, 8.49, 8.94, 8.94, 9.39, 9.39, 9.39, 9.39, 9.32, 9.11, 9.7, 0.0, -15.69, -18.33, -16.19, -9.8, -5.46, -2.8, -6.26, 5.36, 5.81, 5.36, 0.0, 0.0, 0.0, 0.0, 0.0, 0.0, 8.85, 8.85, 9.17, 9.17, 9.17, 9.48, 10.18, 10.18, 10.18, 10.86, 10.86, 10.86, 11.2, 11.2, 10.81, 10.81, 10.81, 11.2, 11.2, 11.2, 11.2, 11.52, 12.26, 12.26, 12.26, 12.16, 12.16, 12.13, 11.53, 11.28, 10.73, 9.92, 8.72, 8.42, 8.85, 8.93, 9.66, 9.56, 9.56, 9.19, 8.82, 8.55, 8.32, 7.68, 8.06, 8.06, 7.81, 8.21, 7.96, 8.0, 7.81, 7.6, 8.06, 7.94, 7.6, 7.6, 6.94, 6.0, 5.6, 5.6, 5.01, 4.98, 4.6, 4.22, 4.4, 6.36, 6.36, 7.06, 7.6, 7.97, 8.24, 8.67, 8.94, 8.87, 8.94, 8.94, 8.94, 8.87, 8.67, 8.67, 8.6, 8.91, -10.4, -14.75, -15.04, -11.09, -2.4, -0.0, -4.92, -5.81, 5.81, 5.81, 4.92, 5.81, 0.0, 0.0, 0.0, 0.0, 8.85, 8.85, 9.17, 9.17, 9.17, 9.48, 10.18, 10.18, 10.18, 10.86, 10.86, 10.86, 11.2, 10.81, 10.81, 10.81, 10.81, 10.81, 11.2, 11.2, 11.2, 11.2, 11.87, 11.87, 11.9, 11.9, 12.16, 11.9, 11.53, 11.66, 10.73, 9.92, 8.72, 8.42, 8.42, 8.93, 9.27, 9.3, 9.56, 9.19, 8.58, 8.23, 8.32, 7.68, 7.68, 7.69, 7.41, 7.81, 7.96, 7.58, 7.76, 7.81, 7.6, 7.63, 7.89, 7.6, 6.94, 6.94, 6.0, 5.6, 5.2, 4.98, 4.6, 4.6, 4.4, 5.81, 5.94, 6.36, 7.15, 7.52, 7.4, 7.37, 7.76, 8.87, 8.94, 8.49, 8.43, 8.43, 8.24, 8.24, 8.24, 8.49, 8.94, -9.2, -13.15, -6.2, -1.84, -0.0, -0.0, -5.36, -4.43, 6.71, 5.36, 5.36, 0.0, 0.0, 0.0, 0.0, 8.85, 8.85, 8.85, 9.17, 9.17, 9.17, 9.85, 10.18, 10.18, 10.86, 10.86, 11.2, 11.2, 10.81, 10.81, 10.81, 10.81, 10.81, 10.81, 10.81, 11.2, 11.2, 11.2, 11.52, 11.52, 11.9, 11.9, 11.54, 11.28, 10.98, 10.3, 9.92, 8.72, 8.72, 8.42, 8.93, 8.93, 8.93, 8.94, 9.19, 8.58, 8.58, 7.96, 7.68, 7.68, 7.33, 7.41, 7.81, 7.81, 7.58, 7.58, 7.37, 7.37, 8.06, 7.89, 8.05, 7.6, 6.94, 6.51, 6.58, 5.4, 5.4, 4.6, 4.6, 4.8, 4.8, 6.36, 5.94, 6.17, 6.71, 6.79, 6.7, 6.87, 6.87, 8.87, 8.94, 8.49, 8.43, 8.43, 8.43, 8.43, 8.41, 4.46, -6.32, -13.42, -10.79, -5.37, -0.0, -0.0, -0.0, -5.81, -5.37, 0.0, 0.0, 0.0, 0.0, 0.0, 0.0, 8.85, 8.85, 8.85, 9.17, 9.17, 9.17, 9.85, 10.18, 10.18, 10.51, 10.86, 11.2, 11.2, 10.81, 10.81, 10.81, 10.81, 10.81, 10.81, 10.81, 10.81, 11.2, 11.2, 11.2, 11.52, 11.52, 11.54, 11.54, 10.9, 10.63, 10.3, 9.17, 8.72, 8.72, 8.42, 8.53, 8.93, 8.93, 8.59, 8.86, 8.5, 8.58, 7.96, 7.61, 7.68, 7.33, 7.33, 7.41, 7.81, 7.51, 7.58, 7.58, 7.37, 7.6, 7.63, 7.89, 7.6, 7.6, 6.94, 6.58, 6.14, 5.4, 5.4, 4.98, 5.2, 5.51, 6.23, 5.81, 6.36, 6.64, 7.15, 7.31, 7.2, 6.63, 8.22, 8.6, 8.49, 8.49, 8.49, 8.49, 8.49, 8.17, 1.95, -13.99, -15.36, -11.9, -7.27, -2.2, -0.0, -0.0, -4.92, -5.06, 0.0, 0.0, 0.0, -3.48, -3.48, -3.48, 8.85, 8.85, 8.85, 8.85, 9.17, 9.17, 9.48, 9.85, 10.18, 10.18, 10.86, 10.86, 10.81, 10.81, 10.81, 10.81, 10.81, 10.81, 10.81, 11.14, 10.81, 10.81, 11.2, 11.2, 11.2, 11.17, 11.17, 11.25, 10.9, 10.63, 9.89, 9.17, 8.72, 8.42, 8.42, 8.12, 8.93, 8.6, 8.59, 8.59, 8.24, 8.24, 7.96, 7.61, 7.61, 6.98, 7.33, 7.32, 7.41, 7.81, 7.15, 7.58, 7.37, 7.07, 7.6, 7.47, 7.6, 7.6, 7.15, 6.71, 6.58, 6.14, 5.81, 5.81, 5.6, 5.94, 5.2, 5.2, 6.79, 7.08, 7.6, 8.05, 7.6, 7.15, 7.01, 8.06, 8.41, 8.05, 8.49, 8.05, 7.97, 6.99, -7.89, -13.86, -15.43, -12.39, -8.93, -5.95, -1.8, -1.8, -3.16, -7.15, -5.37, -2.4, -3.48, -5.36, -5.36, -5.36, 8.46, 8.46, 8.85, 8.85, 8.85, 9.17, 9.48, 10.18, 10.18, 10.18, 10.52, 10.86, 10.81, 10.81, 10.81, 10.81, 10.81, 10.81, 10.81, 11.14, 11.14, 10.81, 10.81, 11.2, 10.86, 10.86, 10.86, 10.52, 10.9, 9.89, 9.48, 8.76, 8.3, 8.42, 8.42, 8.12, 8.93, 8.6, 8.59, 8.59, 8.24, 7.9, 7.61, 7.28, 7.61, 7.27, 7.33, 7.33, 7.06, 7.41, 7.44, 7.15, 6.91, 6.91, 7.07, 7.2, 7.89, 7.6, 7.6, 7.15, 6.71, 6.58, 6.14, 5.81, 6.23, 5.75, 6.0, 5.2, 6.79, 7.08, 8.05, 7.98, 7.98, 7.81, 7.52, 7.6, 7.97, 7.97, 8.49, 8.05, 7.2, 6.18, -2.12, -11.18, -12.96, -10.96, -7.6, -4.46, -3.35, -3.6, -5.2, -8.05, -8.05, -4.43, -4.11, -4.4, -4.4, -4.4, 8.46, 8.46, 8.46, 8.85, 8.85, 8.85, 9.17, 9.85, 9.85, 9.85, 10.18, 10.48, 10.48, 10.81, 10.81, 10.81, 10.81, 10.81, 10.81, 11.14, 10.75, 10.75, 10.75, 10.81, 10.48, 10.86, 10.86, 10.52, 10.58, 9.89, 8.76, 8.76, 8.01, 8.01, 8.42, 8.12, 8.93, 8.6, 8.59, 8.59, 8.24, 7.9, 7.28, 7.28, 7.61, 7.27, 7.27, 7.33, 7.33, 7.41, 7.41, 6.73, 6.79, 6.91, 7.07, 7.2, 7.47, 7.45, 7.6, 7.15, 7.15, 7.15, 6.58, 6.23, 6.23, 5.75, 5.75, 5.75, 5.6, 7.52, 7.6, 7.98, 8.43, 8.43, 8.43, 8.49, 8.41, 8.41, 8.94, 8.41, 6.7, 5.69, 2.8, -6.79, -10.62, -9.7, -6.64, -4.8, -4.77, -3.82, -5.36, -7.15, -8.05, -4.74, -3.79, -5.2, -5.2, -5.2, 8.46, 8.46, 8.46, 8.85, 9.17, 9.17, 9.17, 9.53, 9.85, 9.85, 10.18, 10.48, 10.48, 10.81, 10.81, 10.81, 10.81, 10.81, 10.43, 10.43, 10.75, 10.75, 10.75, 10.43, 10.48, 10.48, 10.48, 10.52, 9.85, 9.48, 8.76, 8.46, 8.01, 8.01, 8.12, 8.12, 8.53, 8.6, 8.93, 8.59, 8.59, 8.24, 7.61, 7.61, 7.28, 7.61, 7.27, 6.98, 7.33, 7.02, 6.68, 6.73, 7.15, 6.45, 6.91, 7.07, 7.2, 7.89, 7.6, 7.6, 7.15, 7.15, 7.15, 7.01, 6.4, 5.72, 5.72, 5.72, 5.75, 7.06, 7.52, 7.54, 7.54, 7.54, 7.6, 7.98, 7.74, 8.6, 8.94, 8.41, 6.18, 6.55, 4.87, -2.49, -9.03, -9.39, -7.06, -4.82, -5.26, -5.36, -5.81, -6.8, -5.06, -5.06, -5.06, -6.8, -6.8, -6.8, 8.46, 8.46, 8.46, 8.85, 9.17, 9.17, 9.17, 9.48, 9.85, 9.85, 9.8, 9.8, 10.48, 10.81, 10.81, 10.81, 10.81, 10.43, 10.43, 10.75, 10.75, 10.75, 10.75, 10.43, 10.48, 10.48, 10.15, 10.18, 9.48, 8.37, 8.37, 8.46, 8.01, 7.73, 8.12, 8.12, 8.22, 8.22, 8.93, 8.59, 8.59, 8.24, 7.94, 7.61, 7.61, 7.61, 7.61, 6.98, 6.98, 6.64, 6.32, 6.68, 6.73, 6.79, 6.45, 6.52, 7.2, 7.47, 7.89, 7.45, 7.01, 7.15, 7.15, 7.01, 6.4, 6.4, 5.72, 5.72, 6.64, 6.64, 6.64, 6.79, 6.88, 6.88, 7.6, 7.6, 7.97, 7.97, 8.41, 8.17, 6.99, 7.2, 6.01, -1.18, -8.22, -10.28, -9.83, -6.71, -6.26, -6.26, -5.81, -6.4, -5.37, -5.69, -6.01, -6.01, -6.01, -6.01, 8.46, 8.46, 8.46, 8.46, 9.17, 9.17, 9.17, 9.48, 9.85, 9.85, 9.8, 9.8, 10.12, 10.12, 10.43, 10.12, 10.12, 10.43, 10.43, 10.43, 10.75, 10.75, 10.75, 10.75, 10.12, 9.8, 9.8, 9.8, 9.1, 8.37, 8.37, 8.09, 8.01, 7.73, 7.73, 7.73, 8.53, 8.22, 8.57, 8.24, 8.24, 7.91, 7.94, 7.94, 7.61, 7.27, 6.95, 7.31, 6.98, 6.98, 6.64, 6.68, 6.32, 6.73, 6.45, 6.91, 6.7, 7.2, 7.47, 7.45, 7.45, 7.5, 7.15, 7.15, 6.94, 5.95, 5.95, 6.32, 6.8, 6.4, 5.81, 7.21, 6.4, 6.88, 7.08, 7.54, 8.05, 8.05, 8.05, 8.17, 8.24, 7.95, 7.07, -0.0, -8.63, -11.18, -11.18, -9.39, -8.49, -8.05, -7.6, -8.06, -8.0, -8.0, -6.32, -6.01, -6.01, -6.01, 8.46, 8.46, 8.46, 8.46, 8.85, 9.17, 9.17, 9.17, 9.48, 9.48, 9.8, 9.8, 10.12, 10.12, 10.12, 10.12, 10.12, 10.12, 10.43, 10.43, 10.43, 10.75, 10.75, 10.43, 9.73, 9.43, 9.8, 9.1, 8.29, 8.01, 8.01, 8.09, 8.16, 7.73, 7.73, 7.73, 8.16, 8.22, 8.57, 8.57, 8.24, 8.24, 8.27, 7.94, 7.59, 7.27, 7.27, 6.95, 6.64, 6.64, 6.64, 6.32, 6.68, 6.73, 6.01, 6.45, 7.07, 7.2, 7.63, 7.63, 7.21, 7.5, 7.5, 7.6, 7.6, 7.21, 6.32, 6.32, 6.7, 6.32, 6.0, 7.06, 5.75, 7.45, 6.64, 7.52, 7.54, 7.98, 8.05, 8.05, 8.43, 8.24, 7.37, 1.58, -8.0, -11.18, -11.51, -10.62, -9.76, -9.74, -8.82, -8.24, -8.48, -7.6, -6.01, -6.01, -6.01, -6.01, 8.46, 8.46, 8.76, 8.76, 9.17, 8.79, 8.79, 8.79, 8.79, 9.48, 9.48, 9.8, 10.12, 10.12, 10.12, 10.12, 10.12, 10.12, 10.12, 10.43, 10.43, 10.43, 10.43, 10.04, 9.73, 9.43, 9.02, 8.73, 7.93, 8.01, 8.01, 8.09, 7.8, 7.73, 7.73, 7.44, 7.85, 7.85, 8.22, 8.24, 8.24, 8.24, 7.9, 7.94, 7.59, 7.59, 6.92, 6.92, 6.62, 6.64, 6.64, 6.64, 6.32, 6.32, 6.73, 6.45, 6.91, 7.07, 7.2, 7.2, 7.63, 7.21, 7.5, 7.45, 7.6, 7.21, 7.21, 7.63, 7.63, 7.21, 6.51, 5.2, 4.98, 7.37, 6.17, 7.08, 7.1, 7.6, 7.6, 7.6, 8.05, 7.97, 7.4, 5.03, -3.15, -10.28, -10.65, -10.28, -9.76, -9.29, -9.26, -8.33, -7.6, -7.07, -6.01, -3.8, -3.8, -3.8, 8.46, 8.46, 8.76, 8.76, 9.17, 8.79, 8.79, 8.79, 8.79, 9.48, 9.48, 9.8, 10.12, 10.12, 10.12, 10.12, 10.12, 10.12, 10.12, 10.43, 10.43, 10.43, 10.43, 10.04, 9.73, 9.43, 9.02, 8.73, 7.93, 8.01, 8.01, 8.09, 7.8, 7.73, 7.73, 7.44, 7.85, 7.85, 8.22, 8.24, 8.24, 8.24, 7.9, 7.94, 7.59, 7.59, 6.92, 6.92, 6.62, 6.64, 6.64, 6.64, 6.32, 6.32, 6.73, 6.45, 6.91, 7.07, 7.2, 7.2, 7.63, 7.21, 7.5, 7.45, 7.6, 7.21, 7.21, 7.63, 7.63, 7.21, 6.51, 5.2, 4.98, 7.37, 6.17, 7.08, 7.54, 7.6, 7.6, 7.6, 8.05, 7.97, 7.2, 5.69, 2.54, -5.36, -9.29, -9.83, -9.83, -9.83, -9.74, -8.91, -7.6, -7.07, -6.01, -3.8, -3.8, -3.8]}, {"header": {"dx": 0.06612293990616946, "dy": 0.0552356325346848, "nx": 98, "ny": 59, "la1": 35.046912555036876, "la2": 31.78801023549047, "lo1": -121.43107172385933, "lo2": -114.95102361305473, "refTime": "2026040819", "parameterCategory": 1, "parameterNumber": 3}, "data": [-11.33, -11.33, -11.33, -10.43, -9.92, -9.34, -8.18, -7.43, -6.99, -6.18, -4.97, -3.68, -3.47, -2.33, -2.13, -5.86, -9.39, -8.41, -8.33, -8.3, -8.72, -8.05, -6.6, -5.95, -5.58, -4.89, -4.89, -4.89, -5.37, -5.01, -6.0, -5.2, -5.2, -5.36, -5.26, -5.4, -5.37, -5.24, -4.74, -4.29, -4.16, -3.99, -5.46, -6.24, -7.51, -7.89, -9.17, -10.39, -11.17, -8.94, -6.7, -5.0, -2.82, 0.0, 1.93, 5.06, 5.29, 4.6, 3.25, 3.39, 1.76, 1.69, 1.93, 1.84, 1.75, 1.32, 1.07, 1.2, 1.16, 1.39, 1.71, 0.0, 0.0, 0.0, 0.0, 0.0, 0.0, 0.0, -5.8, -11.2, -10.28, -7.15, -5.81, -4.0, -3.6, -2.2, 0.0, 0.0, 3.47, 5.73, 8.05, 9.83, 11.18, 11.98, 12.14, 11.5, 10.18, 7.6, -10.99, -11.33, -11.33, -10.43, -10.43, -9.34, -8.43, -8.43, -6.99, -6.99, -6.0, -4.81, -3.68, -3.08, -2.95, -3.65, -8.48, -9.83, -8.33, -8.24, -9.75, -9.2, -8.4, -7.28, -5.58, -5.24, -5.24, -5.24, -6.0, -6.0, -5.75, -5.81, -5.7, -5.81, -5.7, -5.37, -5.95, -5.95, -5.49, -5.84, -5.69, -6.95, -7.56, -9.17, -10.75, -11.52, -12.13, -11.45, -10.76, -8.38, -6.2, -4.6, -2.82, 0.0, 1.62, 3.25, 4.6, 4.05, 2.82, 2.95, 1.45, 1.69, 1.93, 0.0, 0.0, 0.0, 0.0, 0.0, 0.0, 0.0, 0.0, 0.0, 0.0, 0.0, 0.0, 0.0, 0.0, 0.0, -5.8, -11.2, -10.28, -7.15, -5.81, -4.0, -3.6, -2.2, 0.0, 0.0, 3.47, 5.73, 8.05, 9.83, 11.18, 11.98, 12.14, 11.5, 10.18, 7.6, -10.99, -11.33, -11.33, -10.43, -10.43, -9.92, -9.12, -8.43, -7.97, -7.21, -6.31, -5.29, -4.72, -4.54, -3.99, -4.4, -7.56, -9.83, -9.83, -9.74, -9.16, -9.6, -10.0, -8.55, -6.98, -5.15, -5.24, -6.0, -6.0, -6.57, -7.12, -6.88, -6.64, -7.15, -6.14, -6.8, -5.95, -6.18, -7.2, -7.81, -8.32, -9.9, -12.22, -14.3, -15.74, -15.82, -14.22, -12.96, -8.83, -7.06, -5.9, -4.4, -2.7, 0.0, 1.33, 3.11, 3.87, 2.82, 2.82, 1.45, 1.45, 0.0, 0.0, 0.0, 0.0, 0.0, 0.0, 0.0, 0.0, 0.0, 0.0, -1.55, -1.71, -3.39, -2.06, -2.06, 0.0, -4.1, -12.39, -13.41, -10.28, -8.05, -7.6, -6.26, -4.02, -5.09, -3.22, -1.52, 5.2, 8.05, 10.73, 11.62, 11.62, 11.28, 10.68, 8.93, 6.64, 6.26, -10.99, -10.99, -11.33, -10.87, -10.43, -9.44, -9.73, -9.12, -8.4, -7.69, -6.7, -6.31, -6.45, -6.17, -6.17, -6.17, -7.81, -10.41, -10.73, -9.79, -9.21, -9.33, -10.0, -9.67, -8.47, -7.68, -6.21, -6.0, -6.45, -7.37, -8.29, -8.56, -8.77, -8.38, -7.6, -7.47, -8.0, -8.93, -9.43, -11.03, -12.98, -14.91, -15.27, -15.1, -14.19, -13.23, -11.36, -6.69, -6.01, -5.72, -5.53, -4.66, -2.58, 0.0, 1.33, 2.7, 2.7, 2.39, 1.28, 1.28, 0.0, 0.0, 0.0, 0.0, 0.0, 0.0, 0.0, 0.0, 0.0, 0.0, -1.53, -5.18, -7.32, -7.82, -5.36, -4.96, 0.0, 0.0, -15.2, -11.99, -8.49, -5.81, -7.15, -5.81, -5.36, -4.4, -4.11, 2.6, 6.71, 10.73, 12.52, 11.62, 11.09, 10.32, 7.07, 4.74, 5.81, 6.71, -10.54, -10.99, -11.33, -10.87, -10.43, -10.43, -9.73, -9.73, -8.4, -8.31, -6.7, -6.79, -6.2, -5.45, -6.69, -8.15, -9.38, -10.91, -11.18, -11.18, -10.65, -10.18, -9.6, -10.09, -8.93, -8.59, -8.8, -8.48, -8.38, -7.6, -8.49, -9.79, -11.46, -11.46, -11.18, -11.09, -10.84, -11.33, -13.64, -16.02, -15.99, -13.95, -11.6, -9.92, -9.17, -8.07, -6.77, -4.66, -3.32, -3.8, -4.6, -4.0, -2.83, 0.0, 1.33, 1.39, 1.39, 1.22, 1.28, 0.0, 0.0, 0.0, 0.0, 0.0, 0.0, 0.0, 0.0, 0.0, 0.0, 0.0, 0.0, -3.07, -15.78, -15.2, -12.14, -6.7, -3.8, 0.0, -8.53, -8.85, -4.92, -4.92, -5.81, -7.15, -5.64, -4.46, 3.79, 8.05, 11.62, 13.41, 12.42, 10.65, 10.41, 6.21, 5.06, 4.43, 6.14, 8.94, -10.54, -10.54, -10.54, -10.87, -10.87, -10.43, -10.27, -9.44, -9.44, -7.89, -7.24, -6.88, -6.59, -5.45, -5.69, -8.15, -9.38, -11.13, -11.57, -12.03, -12.07, -11.91, -12.56, -11.6, -10.8, -10.8, -10.88, -10.84, -10.65, -10.28, -8.94, -9.35, -9.8, -12.03, -13.41, -13.38, -12.63, -12.58, -15.2, -16.79, -14.56, -11.88, -9.0, -7.78, -7.24, -6.94, -5.78, -3.39, -1.33, 0.0, 0.0, -2.17, 0.0, 0.0, 0.0, 0.0, 0.0, 0.0, 0.0, 0.0, 0.0, 0.0, 1.62, 1.54, 1.26, 1.39, 0.0, 0.0, 1.2, 1.45, 7.51, 13.86, -0.0, -9.39, -13.99, -13.86, -8.94, -6.26, -4.11, -7.81, -5.81, -7.15, -7.15, -7.6, -7.37, 6.01, 8.49, 11.62, 14.3, 13.41, 11.18, 12.39, 8.63, 5.49, 4.58, 4.74, 7.5, 9.83, -10.54, -10.54, -10.54, -10.87, -10.87, -10.43, -9.97, -9.97, -9.67, -8.45, -7.64, -6.58, -5.7, -4.99, -4.08, -6.44, -9.3, -11.56, -11.88, -12.35, -12.92, -14.3, -14.37, -14.95, -14.56, -14.4, -14.56, -14.03, -12.42, -10.41, -10.65, -8.9, -8.72, -8.4, -11.21, -13.81, -14.11, -12.74, -12.39, -12.96, -13.8, -12.42, -12.25, -11.16, -11.1, -8.67, -7.82, -4.8, -2.39, 0.0, 0.0, 0.0, 0.0, 0.0, 0.0, 0.0, 0.0, 0.0, 0.0, 0.0, 0.0, 1.33, 1.33, 1.26, 1.14, 1.26, 1.39, 0.0, 0.0, 1.75, 8.58, 11.62, 11.71, 7.93, -0.0, -7.0, -12.39, -7.6, -4.11, -8.18, -7.21, -8.49, -9.39, -9.83, -10.73, 11.62, 12.07, 13.41, 13.86, 12.96, 12.07, 11.45, 5.24, 4.58, 4.58, 5.24, 8.41, 9.39, -10.22, -10.54, -10.54, -10.54, -10.87, -10.87, -10.43, -10.43, -9.67, -9.06, -7.52, -7.31, -6.69, -6.71, -5.99, -5.52, -8.22, -11.2, -12.14, -12.58, -12.51, -12.31, -12.07, -15.43, -14.66, -14.75, -15.53, -15.27, -13.48, -12.45, -11.78, -12.07, -11.87, -11.2, -10.0, -12.27, -12.58, -5.0, -8.22, -11.51, -12.71, -13.27, -14.94, -15.52, -14.39, -12.42, -8.75, -6.44, -5.21, -3.98, -1.84, 0.0, 0.0, 0.0, -1.62, -1.39, -1.22, 0.0, 0.0, 0.0, 0.0, 0.0, 0.0, 0.0, 1.07, 1.14, 1.33, 0.0, 0.0, 1.49, 5.36, 8.23, 10.96, 12.07, 13.01, 11.2, -0.0, -10.8, -8.85, -7.93, -11.06, -12.07, -8.8, -9.6, 0.0, 12.96, 12.52, 12.96, 12.96, 12.07, 10.96, 4.29, 3.91, 3.97, 5.06, 6.57, 8.87, 8.49, -10.22, -10.54, -10.54, -10.54, -10.87, -10.87, -10.43, -10.43, -9.7, -8.76, -8.22, -9.67, -11.26, -11.33, -10.41, -9.42, -9.69, -11.38, -12.58, -12.14, -12.14, -12.58, -12.71, -12.0, -12.07, -10.96, -9.64, -12.39, -13.99, -13.57, -13.8, -15.2, -14.84, -12.39, -10.87, -11.18, -11.18, 10.41, 9.39, -10.28, -12.96, -14.4, -13.48, -11.5, -10.4, -10.46, -10.8, -8.73, -7.27, -6.14, -5.7, -4.2, -1.84, -1.93, -1.54, -2.58, -2.28, -2.49, -1.28, -1.16, 0.0, 0.0, 0.0, 0.0, 0.0, 0.0, 0.0, 0.0, 0.0, 0.0, 1.58, 1.84, 6.45, 11.45, 10.84, 9.83, 8.94, 10.28, -0.0, -4.81, -11.7, -14.3, -8.8, -2.69, 0.0, 5.7, 9.6, 10.84, 10.41, 8.8, 4.84, 3.22, 2.76, 4.74, 5.95, 7.37, 8.87, 7.98, -10.58, -10.22, -10.54, -10.54, -10.87, -10.87, -10.43, -10.84, -9.7, -8.79, -8.85, -9.9, -9.27, -10.85, -12.39, -12.21, -12.56, -13.43, -14.4, -13.09, -12.66, -12.66, -13.53, -12.89, -9.75, 0.0, -7.6, -10.52, -14.18, -14.19, -14.6, -16.54, -15.65, 0.0, 0.0, -3.53, 8.94, 7.31, 8.05, 8.94, -10.73, -12.71, -10.5, -7.2, -5.15, -5.95, -5.93, -8.03, -7.9, -5.59, -5.36, -5.36, -3.49, -3.49, -4.2, -3.87, -3.77, -3.92, -3.92, -3.61, -2.39, -2.09, -1.58, -1.25, -1.4, -1.2, -1.16, -1.04, -1.0, -1.2, 0.0, 0.0, 0.0, 0.0, 4.8, 8.8, 8.06, 8.48, 11.18, -0.0, -8.93, -13.76, -13.41, -2.4, 0.0, 1.73, 3.6, 4.71, 4.46, 3.22, 2.4, 2.2, 3.49, 4.89, 5.95, 6.57, 8.24, 7.37, -10.58, -10.22, -10.54, -10.87, -10.87, -10.84, -10.84, -10.84, -10.12, -9.1, -9.17, -10.18, -9.43, -8.56, -10.12, -12.27, -13.99, -13.99, -13.68, -15.52, -16.54, -16.82, -15.96, -14.3, 12.07, 9.39, 0.0, -10.28, -12.96, -13.86, -0.0, 12.3, 12.07, 10.6, 10.0, 10.04, 10.84, 9.21, 6.36, 6.4, 5.72, -9.13, -9.85, -8.15, -5.69, -4.47, -3.91, -4.14, -4.37, -5.1, -4.6, -4.6, -4.6, -5.59, -6.01, -5.98, -6.76, -7.85, -7.02, -6.5, -4.44, -3.99, -3.6, -3.32, -2.69, -2.33, -3.45, -3.3, -3.35, -3.17, -2.58, -2.95, -1.98, 0.0, 0.0, 0.0, 0.0, 9.39, 9.83, 12.52, -6.4, -13.02, -15.2, -12.3, -2.83, 0.0, 0.0, 0.0, 0.0, 0.0, 0.0, 1.08, 2.95, 4.11, 5.24, 6.4, 7.74, 6.88, -10.58, -10.22, -10.54, -11.26, -10.84, -10.84, -10.84, -10.84, -10.12, -9.48, -9.48, -9.8, -10.43, -8.58, -6.27, -5.29, -5.6, -7.06, -7.2, -7.4, -7.82, -7.69, -9.16, -0.0, 5.37, 4.74, 4.43, 2.53, 5.64, 6.71, 8.49, 6.17, 6.17, 6.17, 10.52, 9.55, 8.82, 5.93, 5.37, 5.15, 4.75, 0.0, -9.11, -8.63, -6.28, -3.0, -3.4, -4.22, -4.46, -6.01, -5.37, -4.14, -4.14, -5.03, -5.03, -4.71, -6.58, -9.27, -9.62, -6.42, -4.37, -4.37, -5.36, -5.36, -3.8, -2.17, -3.77, -6.76, -7.59, -6.58, -5.98, -5.32, -4.8, -6.17, -5.7, -8.22, -7.9, 0.0, 10.73, 12.52, 0.0, -10.8, -11.2, -14.75, -10.18, -6.64, -4.0, -2.28, -2.17, -1.73, 0.0, 0.0, 2.0, 1.99, 3.22, 5.24, 6.4, 6.4, -10.58, -10.58, -10.54, -11.26, -10.84, -10.84, -11.2, -10.86, -10.12, -9.8, -9.8, -10.12, -10.43, -10.01, -8.35, -6.24, -4.31, -2.72, -2.13, -2.33, -2.18, -1.69, -1.78, 0.0, 2.2, 1.94, 1.94, 2.4, 3.91, 5.36, 5.81, 5.73, 5.73, 5.73, 5.73, 5.81, 5.24, 3.91, 3.4, 3.4, 3.91, 0.0, -8.91, -8.48, -7.28, -5.06, -3.97, -4.71, -6.01, -6.7, -5.59, -5.06, -3.2, 0.0, 0.0, 4.2, 0.0, -10.28, -9.67, -0.0, 7.6, 4.0, -4.0, -6.01, -3.15, -1.07, 0.0, -2.82, -10.0, -10.68, -8.93, -8.18, -6.98, -6.44, -8.91, -11.18, -8.22, -7.59, -0.0, 0.0, 0.0, 0.0, -0.0, -0.0, -12.52, -11.87, -10.41, -7.81, -5.46, -4.71, -2.26, -1.3, 0.0, 0.0, 1.32, 3.22, 4.74, 5.75, -10.58, -10.58, -10.58, -10.92, -10.84, -10.51, -10.86, -10.48, -10.48, -10.12, -10.12, -10.12, -10.04, -10.01, -9.42, -7.76, -6.34, -4.81, -3.21, -2.43, -1.77, -1.69, -1.71, -2.28, -2.19, -0.0, 4.0, 3.22, 3.63, 4.89, 5.75, 5.81, 6.71, 5.73, 5.94, 5.37, 3.91, 3.2, 1.96, 2.26, 2.26, 1.73, -8.55, -10.6, -7.63, -5.72, -2.99, 0.0, 0.0, 0.0, -5.46, -3.39, 11.99, 13.86, 12.14, 10.4, 7.81, 8.05, 2.6, 4.74, 8.41, 8.67, 8.0, 0.0, 0.0, 2.26, 4.16, 4.01, 0.0, -8.05, -10.28, -10.41, -4.8, 3.11, 5.46, -0.0, -0.0, -0.0, -4.0, -8.49, 0.0, 0.0, 5.2, 9.48, 0.0, 0.0, -11.6, -9.75, -7.6, -5.06, -6.32, -5.06, -2.6, -1.52, 0.0, 1.32, 3.22, 4.43, -10.58, -10.58, -10.58, -10.51, -10.51, -10.51, -10.48, -10.48, -10.48, -10.48, -10.12, -10.04, -10.04, -9.95, -9.78, -9.34, -7.97, -6.34, -5.57, -3.88, -3.17, -2.85, -2.4, -2.85, -3.94, -4.81, 11.62, 8.48, 4.84, 3.93, 4.8, 4.88, 6.71, 6.94, 7.01, 6.52, 5.69, 1.96, 0.0, 0.0, 1.4, 2.4, -4.8, -9.6, -6.64, -5.58, 0.0, 5.21, 4.74, 5.46, 3.25, 7.27, 9.83, 8.05, 6.71, 6.32, 5.58, 8.24, 7.81, 7.37, 8.05, 7.89, 7.37, 6.8, 6.8, 6.8, 7.47, 8.4, 6.01, 0.0, -3.2, 6.42, 9.46, 9.8, 10.04, 8.91, 3.6, -0.0, -2.4, -3.4, -5.06, -0.0, -0.0, -0.0, 9.2, 12.52, 11.99, -5.0, -8.49, -7.2, -6.32, -6.8, -6.4, -3.0, -1.4, 1.23, 2.6, 2.6, -10.58, -10.58, -10.58, -10.51, -10.51, -10.51, -10.48, -10.48, -10.48, -10.48, -10.43, -10.04, -10.04, -9.95, -9.5, -9.42, -8.83, -7.76, -6.16, -5.35, -4.61, -3.61, -2.94, -2.68, -3.47, -3.98, 0.0, 3.68, 8.8, 7.6, 6.14, 5.75, 5.36, 7.6, 7.01, 6.4, 5.37, 2.99, 0.0, 0.0, 1.52, 3.22, 0.0, -6.36, -6.51, 0.0, 7.15, 6.71, 6.36, 5.94, 5.21, 6.36, 6.36, 6.36, 5.94, 4.43, 5.58, 6.79, 7.37, 8.33, 7.21, 6.8, 6.0, 6.0, 6.0, 6.4, 6.13, 6.01, 5.59, 3.72, 7.45, 9.13, 11.99, 11.4, 9.39, 8.05, 8.33, -0.0, -2.69, -4.46, -5.69, -5.37, -3.4, -0.0, -0.0, 4.43, 10.28, 6.95, 0.0, -5.37, -7.6, -7.15, -6.0, -3.2, -1.58, 0.0, 0.0, 0.0, -10.58, -10.58, -10.92, -10.18, -10.18, -10.51, -10.48, -10.81, -10.48, -10.48, -10.43, -10.43, -10.34, -9.95, -9.87, -9.16, -8.35, -7.54, -6.73, -6.16, -5.19, -4.17, -3.5, -2.48, -2.35, -1.13, 0.0, 0.0, 2.2, 3.82, 9.75, 8.05, 6.71, 8.05, 6.21, 6.51, 6.16, 5.95, 4.43, 4.11, 5.09, 4.29, 5.06, 0.0, 0.0, 7.6, 7.6, 7.15, 7.15, 7.15, 6.4, 6.79, 6.79, 5.95, 5.06, 5.06, 6.32, 6.7, 7.07, 7.15, 7.15, 5.69, 3.97, 3.72, 3.72, 3.49, 3.97, 4.29, 6.44, 7.37, 8.33, 10.21, 12.14, 11.53, 8.05, 8.29, 9.03, 9.83, 6.95, 6.32, -0.0, -2.54, -2.54, -2.54, -0.0, -0.0, 4.92, 4.47, 3.48, 0.0, -8.48, -7.89, -6.94, -5.69, -4.96, -3.97, 0.0, 0.0, -10.58, -10.58, -10.92, -10.51, -10.18, -9.8, -10.48, -10.48, -10.81, -10.81, -10.43, -10.75, -9.95, -9.95, -9.58, -9.23, -8.35, -8.05, -6.8, -5.63, -4.2, -4.03, -3.5, -1.81, 0.0, 0.0, -2.28, -2.8, -3.3, -2.35, 0.0, 11.18, 8.82, 6.26, 5.36, 7.15, 6.71, 6.07, 6.07, 5.94, 5.6, 6.4, 6.0, 6.94, 7.45, 7.47, 7.81, 7.6, 7.6, 7.6, 7.6, 6.8, 5.37, 5.37, 2.4, 2.4, 4.46, 4.46, 4.71, 4.71, 4.71, 4.46, 4.22, 2.12, 0.0, 1.41, 1.14, 3.2, 8.8, 10.96, 12.07, 11.46, 10.62, 8.94, 9.32, 8.79, 8.79, 9.54, 9.32, 8.49, 7.15, 6.17, 4.29, -0.0, -0.0, -0.0, -0.0, 5.36, 5.6, 8.05, -6.64, -7.2, -7.6, -7.44, -6.32, -6.8, -4.74, -4.74, -10.58, -10.58, -10.18, -10.51, -10.18, -9.8, -10.48, -10.48, -10.81, -10.43, -10.43, -10.75, -10.68, -10.68, -9.95, -10.49, -8.51, -8.43, -6.45, -4.81, -3.61, -4.38, -4.47, -3.91, -2.72, -4.24, -6.2, -7.59, -7.93, -9.48, -9.17, 12.07, 10.73, 8.94, 6.58, 6.14, 6.07, 5.09, 6.4, 5.58, 3.79, 4.65, 5.21, 6.0, 6.52, 5.69, 5.69, 7.2, 8.05, 7.6, 6.8, 6.8, 3.4, 3.4, 2.4, 2.54, 2.54, 2.69, 2.69, 2.69, 2.54, 2.4, 1.84, 1.23, 0.0, 0.0, 0.0, 1.1, 4.6, 7.59, 7.27, 7.9, 10.04, 10.8, 10.4, 9.6, 9.46, 9.77, 9.34, 8.94, 9.39, 8.0, 8.05, 5.46, 4.4, 4.0, 4.6, 7.9, 10.73, 9.33, 8.05, -5.69, -8.06, -8.94, -6.01, -7.6, -7.6, -7.6, -10.58, -10.58, -10.18, -10.18, -10.18, -10.15, -10.48, -10.48, -10.81, -10.43, -10.43, -10.75, -10.68, -10.68, -10.68, -9.58, -9.3, -8.85, -8.45, -7.03, -6.45, -6.34, -6.92, -8.05, -7.73, -9.2, -10.39, -11.44, -12.37, -13.15, -11.62, 0.0, 10.28, 8.94, 8.05, 6.71, 5.81, 5.2, 4.43, 3.76, 3.63, 3.35, 2.79, 3.16, 3.49, 3.91, 3.4, 5.37, 6.8, 6.8, 6.8, 5.37, 5.37, 5.37, 3.0, 2.66, 2.06, 1.49, 0.0, 0.0, 0.0, 0.0, 0.0, 0.0, 0.0, 0.0, 0.0, 1.1, 2.09, 2.06, 3.11, 3.29, 4.47, 4.55, 6.8, 10.8, 10.38, 10.58, 8.44, 8.44, 8.9, 8.94, 8.67, 6.79, 4.71, -0.0, -0.0, -0.0, 11.18, 8.94, 7.63, 8.0, -0.0, -8.94, 0.0, 0.0, -8.05, -8.05, -10.58, -10.58, -10.18, -10.18, -9.8, -10.15, -10.15, -10.48, -10.81, -10.75, -10.43, -10.75, -10.68, -10.68, -10.3, -10.3, -8.96, -9.3, -8.82, -9.97, -10.49, -8.77, -8.99, -9.66, -11.06, -9.67, -9.61, -11.68, -14.3, -11.45, -9.6, 0.0, 8.49, 7.6, 7.6, 6.71, 5.81, 5.2, 5.21, 4.74, 4.02, 4.43, 4.89, 4.81, 4.37, 5.37, 3.4, 3.4, 6.8, 7.15, 6.4, 5.06, 5.37, 5.37, 4.22, 3.68, 2.54, 1.32, 0.0, 0.0, 0.0, 0.0, 0.0, 0.0, 0.0, 1.41, 1.41, 1.03, 1.96, 2.06, 2.28, 0.0, -2.88, -4.54, 0.0, 13.86, 13.86, 12.96, 10.28, 7.6, 8.0, 8.45, 8.05, 6.88, 4.74, -0.0, -1.7, -2.6, -0.0, 0.0, 8.05, 9.83, 7.27, -0.0, 0.0, 0.0, -8.05, -8.05, -10.58, -10.58, -10.18, -10.18, -9.8, -10.15, -10.15, -10.48, -10.43, -10.75, -10.75, -10.75, -10.37, -10.68, -10.3, -9.95, -9.66, -8.96, -9.71, -10.89, -10.19, -8.77, -8.93, -10.4, -11.22, -10.08, -8.4, -7.59, -12.96, -5.0, -5.37, 0.0, 0.0, 4.74, 6.4, 6.0, 5.94, 4.66, 5.51, 5.21, 4.43, 4.43, 4.89, 5.75, 5.2, 4.29, 3.6, 6.8, 7.15, 6.71, 6.79, 6.32, 5.06, 5.06, 3.97, 3.4, 3.4, 1.2, -2.06, -4.46, -3.2, -1.4, -1.4, 0.0, 0.0, 1.41, 1.41, 1.23, 1.98, 2.99, 2.83, 0.0, -13.15, -15.27, -0.0, 12.39, 16.54, 15.61, 13.23, 10.28, 7.98, 8.01, 8.45, 8.49, 7.15, 5.7, 4.84, 4.43, 3.4, -0.0, 5.0, 9.75, 9.2, 5.06, 0.0, 0.0, 0.0, 0.0, -10.58, -10.58, -10.58, -10.18, -9.8, -10.15, -10.48, -10.12, -10.43, -10.75, -10.75, -10.75, -10.68, -10.68, -10.3, -10.3, -9.66, -9.06, -9.33, -9.68, -9.07, -6.7, -6.47, -7.54, -9.91, -10.83, -9.2, -7.32, -5.6, 0.0, 0.0, 0.0, 0.0, 0.0, 2.4, 4.11, 3.79, 4.66, 4.66, 4.84, 4.43, 5.01, 5.37, 6.02, 5.24, 4.66, 6.79, 6.71, 6.26, 7.15, 7.37, 6.32, 6.32, 5.95, 3.97, 3.97, 3.0, 2.82, 0.0, -4.74, -6.13, -4.56, -3.4, -2.26, 0.0, 0.0, 0.0, 1.63, 1.32, 2.12, 2.99, 6.7, -2.28, -0.0, -0.0, -0.0, 6.4, 13.39, 13.99, 13.67, 10.28, 8.05, 8.05, 8.49, 8.9, 8.49, 8.05, 6.88, 7.27, 2.28, -0.0, 5.0, 9.2, 3.48, 0.0, 0.0, 0.0, 0.0, -10.58, -10.58, -10.18, -10.18, -9.8, -10.15, -10.15, -10.12, -10.43, -10.75, -10.75, -11.06, -10.68, -11.06, -10.3, -10.3, -9.95, -9.06, -9.61, -9.09, -8.51, -7.26, -5.81, -5.02, -6.99, -9.49, -10.39, -8.85, -6.67, -5.4, 0.0, 0.0, 0.0, 0.0, 0.0, 2.12, 3.47, 4.84, 4.46, 4.46, 4.84, 4.43, 6.0, 6.17, 5.81, 4.92, 6.71, 6.71, 7.15, 7.6, 7.89, 6.8, 6.8, 5.95, 5.06, 3.97, 2.99, 3.0, 3.4, -3.0, -5.2, -6.0, -3.0, 0.0, 0.0, 0.0, 2.54, 0.0, 0.0, 0.0, 1.1, 9.39, -0.0, -1.14, -0.0, -0.0, -0.0, 5.6, 10.12, 13.28, 12.39, 9.83, 8.49, 8.05, 8.0, 8.44, 8.49, 8.94, 8.4, -0.0, -0.0, -0.0, -0.0, -0.0, 0.0, 0.0, -0.0, -0.0, -10.58, -10.58, -10.18, -10.18, -10.18, -9.8, -10.15, -10.12, -10.43, -10.75, -10.34, -10.75, -10.68, -10.68, -10.7, -10.35, -10.35, -9.33, -9.33, -9.55, -8.77, -7.98, -6.8, -5.81, -6.28, -7.21, -9.06, -9.6, -8.05, -6.9, -6.94, -5.0, 0.0, 0.0, 0.0, 0.0, 1.84, 3.97, 4.74, 5.21, 5.58, 5.58, 5.95, 6.51, 6.26, 5.7, 5.7, 5.81, 6.26, 6.2, 5.64, 7.06, 6.4, 6.4, 6.08, 5.06, 3.0, 2.99, 3.72, 2.12, 0.0, -4.92, 0.0, 0.0, 2.6, 2.54, 2.17, 1.67, 0.0, 0.0, 0.0, 2.82, -0.0, -3.25, -3.11, -1.58, -0.0, 1.55, 4.96, 9.66, 11.99, 12.04, 11.18, 10.28, 7.97, 7.54, 7.98, 7.98, 7.15, 5.6, -0.0, -1.95, -0.0, -0.0, 0.0, 0.0, 0.0, 0.0, -10.58, -10.58, -10.18, -10.18, -10.18, -9.8, -9.8, -10.12, -10.43, -10.43, -10.34, -10.34, -10.68, -10.68, -10.3, -10.35, -10.35, -9.61, -9.61, -9.61, -9.28, -8.24, -7.76, -7.26, -7.0, -6.6, -7.68, -8.58, -7.79, -7.54, -6.44, -5.4, -2.71, 0.0, 0.0, 0.0, 2.06, 3.8, 4.83, 5.37, 5.37, 4.22, 5.37, 7.21, 7.15, 6.51, 6.51, 6.14, 6.26, 5.81, 5.31, 4.73, 6.58, 6.64, 6.52, 6.08, 3.72, 3.47, 3.72, 3.97, 3.97, 5.06, 4.92, 4.02, 6.0, 6.32, 4.0, 1.58, 0.0, -1.1, 0.0, 0.0, 4.46, -0.0, -5.8, -3.96, -1.71, 1.32, 2.99, 6.32, 10.79, 12.79, 13.23, 10.73, 6.26, 7.15, 7.54, 7.12, 6.88, 6.2, 6.71, -2.66, -2.06, -3.2, -7.15, 0.0, -0.0, -0.0, -10.18, -10.18, -10.18, -10.18, -10.18, -9.8, -9.8, -9.8, -10.12, -10.43, -10.34, -10.34, -10.25, -10.37, -10.3, -9.95, -10.35, -9.61, -9.61, -9.61, -9.28, -8.53, -8.24, -7.76, -7.54, -7.38, -7.74, -7.95, -7.78, -6.63, -5.99, -4.58, -4.4, -3.07, -1.52, 0.0, 0.0, 1.62, 2.97, 3.32, 4.0, 3.8, 2.06, 3.6, 7.6, 7.21, 7.37, 7.01, 6.71, 6.26, 5.81, 4.87, 4.43, 4.73, 6.0, 5.58, 5.06, 5.58, 4.43, 4.19, 3.6, 2.66, 3.4, 5.81, 8.94, 7.07, 3.8, 1.25, 0.0, 0.0, 0.0, 0.0, 2.21, 3.32, 6.64, -0.0, -0.0, -0.0, 1.98, 3.97, 6.87, 11.9, 14.11, 10.73, 7.15, 6.71, 6.88, 7.37, 7.54, 7.6, 7.15, 5.81, -1.58, -2.69, -3.4, -7.6, -4.74, -4.74, -10.18, -10.18, -10.18, -10.18, -10.18, -9.8, -9.8, -9.8, -10.12, -10.12, -10.04, -10.34, -9.95, -9.95, -9.58, -10.01, -9.95, -9.95, -9.61, -9.61, -9.28, -8.97, -8.24, -8.53, -8.05, -7.93, -7.82, -8.05, -8.05, -7.18, -5.86, -5.2, -3.92, -2.6, -1.33, 0.0, 0.0, 0.0, 1.33, 1.54, 1.75, 1.75, 1.67, -2.69, -8.05, -0.0, 4.71, 7.06, 7.06, 6.71, 5.81, 5.31, 4.87, 4.73, 4.73, 5.6, 6.0, 6.0, 4.89, 4.19, 2.26, 1.07, 3.68, 6.64, 7.89, 8.18, 1.4, 0.0, 0.0, 0.0, 0.0, 0.0, 1.2, 3.8, 5.93, 7.6, 8.23, -0.0, -0.0, 1.84, 4.46, 9.48, 14.42, 11.62, 8.94, 7.6, 6.02, 7.08, 7.15, 7.15, 7.15, 7.15, -0.0, -1.58, -2.54, -5.69, -5.37, -5.37, -10.18, -10.18, -10.18, -10.18, -10.18, -9.8, -9.8, -9.73, -10.12, -10.12, -10.04, -10.34, -10.25, -10.25, -9.87, -9.58, -9.23, -9.66, -9.33, -9.33, -9.28, -8.97, -8.53, -8.53, -7.82, -8.18, -7.77, -7.69, -7.63, -7.62, -6.44, -4.9, -3.68, -2.42, -1.18, -1.28, 0.0, 0.0, 0.0, 0.0, 1.54, 1.47, 1.67, 0.0, 0.0, -7.6, -0.0, 6.7, 7.31, 6.71, 5.81, 5.31, 4.87, 4.73, 4.73, 4.11, 6.0, 6.4, 4.89, 4.74, 3.0, 2.4, 4.74, 7.2, 7.76, 4.37, 1.47, 0.0, -2.09, -2.09, -1.14, 0.0, 0.0, 2.06, 10.73, 11.18, 10.28, 5.72, -0.0, -0.0, 1.98, 6.7, 13.19, 13.86, 9.39, 5.36, 6.26, 6.26, 6.64, 6.26, 6.64, 6.17, 6.51, -1.84, -2.4, -7.2, -7.2, -7.2, -10.18, -10.18, -10.18, -10.18, -10.18, -9.8, -9.8, -9.73, -10.12, -10.12, -10.12, -10.34, -9.95, -10.25, -10.15, -9.87, -9.23, -9.23, -9.33, -9.33, -9.28, -8.97, -8.53, -8.53, -8.05, -7.88, -7.77, -7.69, -7.25, -7.19, -6.96, -5.6, -3.82, -2.52, -1.23, -1.18, -1.14, 0.0, 0.0, 0.0, 0.0, 0.0, 0.0, 1.58, 2.66, -1.84, 0.0, 6.88, 5.32, 4.92, 4.85, 4.85, 4.87, 4.73, 4.73, 4.66, 4.0, 3.72, 4.89, 4.43, 3.0, 3.2, 5.06, 6.7, 5.69, 4.46, 2.54, 0.0, -2.8, -4.22, -3.6, -1.25, 0.0, 7.59, 8.85, 11.88, 11.95, 8.49, 3.48, -0.0, 0.96, 3.11, 7.19, 13.57, 12.96, 6.71, 5.36, 5.36, 4.82, 6.71, 7.45, 7.47, 8.49, -0.0, -2.69, -6.01, -7.6, -7.6, -9.85, -9.85, -10.18, -10.18, -10.18, -9.8, -9.8, -9.73, -9.73, -10.04, -10.04, -9.73, -9.95, -9.95, -10.25, -9.87, -9.5, -9.5, -9.16, -9.16, -9.28, -8.84, -8.84, -8.53, -8.35, -8.12, -7.77, -7.69, -7.79, -7.63, -6.76, -6.42, -4.65, -3.47, -2.28, -1.23, -1.18, -1.14, -1.14, 0.0, 0.0, 0.0, 0.0, 1.4, 1.49, 0.0, 4.71, 6.71, 4.02, 3.53, 3.53, 3.97, 4.41, 4.66, 4.66, 4.66, 4.8, 4.8, 4.46, 4.11, 4.19, 4.22, 5.15, 4.46, 3.6, 3.4, 2.12, 1.84, 0.0, -5.06, -3.76, 0.0, 2.26, 7.59, 6.0, 9.49, 12.65, 10.58, 8.72, 3.6, -0.0, -0.0, -0.0, 4.24, 11.99, 11.03, 7.27, 5.21, 5.81, 4.24, 4.92, 4.4, 6.07, 5.37, -0.0, -4.0, -6.32, -6.32, -9.85, -9.85, -9.85, -10.18, -10.18, -9.8, -9.8, -9.73, -9.73, -10.04, -10.04, -10.04, -10.04, -10.25, -10.25, -9.87, -9.5, -9.28, -8.93, -8.93, -8.93, -8.59, -8.35, -8.35, -8.35, -8.43, -8.25, -7.93, -7.51, -7.12, -8.05, -6.76, -6.21, -4.12, -3.06, -2.19, -1.11, -1.18, -1.14, -1.14, -1.22, 0.0, 0.0, 0.0, 0.0, 2.28, 7.51, 7.63, 6.17, 5.73, 5.29, 4.85, 4.82, 4.57, 4.57, 4.24, 4.8, 4.8, 4.19, 4.11, 3.91, 3.77, 3.99, 2.99, 2.21, 1.07, 0.0, 0.0, 0.0, 0.0, 1.63, 3.68, 3.32, 3.11, 9.8, 6.8, 8.58, 9.3, 7.15, 3.65, -0.0, -1.93, -2.49, -0.0, -0.0, 0.0, 0.0, 1.84, 2.8, 5.2, 5.09, 5.2, 4.77, 4.8, -0.0, -2.83, -0.0, -0.0, -9.85, -9.85, -9.85, -10.18, -10.18, -9.8, -9.8, -10.12, -9.73, -10.04, -10.04, -10.04, -10.04, -9.66, -10.25, -9.87, -9.39, -9.02, -9.02, -8.93, -8.93, -8.59, -8.59, -8.35, -8.12, -7.88, -7.77, -8.29, -8.01, -7.78, -7.64, -7.54, -6.92, -4.99, -3.97, -2.94, -2.19, -2.1, -2.33, -2.23, -1.14, -1.22, 0.0, 0.0, 0.0, 2.28, 5.46, 8.0, 7.2, 6.64, 6.64, 6.23, 5.81, 5.4, 4.98, 4.15, 3.83, 4.4, 4.19, 3.48, 3.43, 2.82, 3.15, 2.09, 1.07, 0.0, 0.0, 0.0, 0.0, 1.67, 4.71, 4.96, 3.35, 2.58, 12.52, 5.64, 1.93, 2.99, 4.14, 1.84, -0.0, -2.6, -2.71, -3.68, -5.6, 0.0, -4.1, -1.98, 2.83, 6.4, 5.06, 5.36, 4.66, 4.02, 2.12, -0.0, -0.0, -0.0, -9.85, -9.85, -9.85, -9.85, -10.18, -9.8, -9.8, -10.12, -9.73, -10.04, -10.04, -10.34, -10.04, -9.66, -9.95, -9.87, -9.39, -9.39, -9.02, -8.93, -8.93, -9.17, -8.59, -8.06, -8.12, -7.88, -7.77, -8.2, -8.84, -8.18, -7.36, -7.14, -6.45, -5.64, -4.32, -3.82, -2.94, -2.82, -2.1, -2.23, -2.23, -2.39, -1.22, 0.0, 0.0, 0.0, 2.39, 5.21, 7.44, 7.6, 6.8, 6.0, 6.0, 5.2, 4.98, 4.57, 3.83, 3.45, 3.49, 2.84, 4.29, 4.56, 3.4, 1.49, 1.18, 0.0, 0.0, 0.0, 0.0, 1.67, 3.17, 3.49, 1.84, 1.33, 7.69, 4.66, -0.0, -0.0, -0.0, -0.0, -0.0, -0.0, -0.0, -0.0, -0.0, -12.52, -9.48, -6.0, 0.0, 8.48, 3.22, 4.43, 4.92, 3.58, 4.11, -0.0, -0.0, -0.0, -9.85, -9.85, -9.85, -9.85, -9.8, -9.8, -9.8, -10.12, -10.04, -10.04, -10.34, -10.34, -10.34, -9.66, -9.66, -9.95, -9.12, -9.12, -8.76, -9.02, -8.39, -8.39, -8.39, -8.39, -7.84, -8.12, -7.69, -8.2, -8.56, -8.18, -7.62, -6.21, -6.4, -6.16, -4.72, -4.15, -3.82, -2.82, -2.82, -2.95, -3.25, -2.13, -1.22, 0.0, 0.0, 0.0, 0.0, 2.28, 5.21, 7.44, 7.6, 7.2, 6.8, 6.4, 5.6, 4.98, 4.22, 3.83, 3.49, 3.16, 2.86, 4.56, 3.4, 1.49, 1.84, 1.84, 1.1, 1.18, 1.07, 1.07, 2.09, 1.75, 1.84, 1.58, 4.38, 9.48, -3.14, -4.1, -2.2, -0.0, -0.0, -0.0, -0.0, -0.0, -0.0, -13.86, -10.43, -4.1, 10.73, 6.36, 3.47, 1.7, 3.79, 4.02, 4.4, 5.37, 2.69, 2.69, -9.85, -9.85, -9.48, -9.48, -9.8, -9.8, -10.12, -10.12, -10.04, -10.04, -10.34, -10.34, -10.34, -9.66, -9.66, -9.95, -9.12, -9.12, -8.76, -9.02, -8.16, -8.39, -8.39, -7.82, -8.16, -8.12, -7.69, -7.85, -8.29, -8.3, -7.19, -5.99, -5.86, -5.2, -4.08, -4.15, -3.82, -3.67, -3.67, -2.95, -2.95, -3.11, -2.28, -1.22, -1.39, -1.69, -2.02, 0.0, 2.97, 5.21, 6.32, 6.79, 6.44, 6.08, 5.72, 5.36, 4.98, 4.6, 3.49, 3.16, 3.15, 2.44, 2.99, 1.96, 2.09, 1.67, 1.25, 1.14, 0.0, 0.0, 0.0, 1.07, 1.62, 1.22, 1.55, 0.0, -8.22, -3.14, -0.0, -0.0, -0.0, -0.0, -0.0, -0.0, -0.0, 0.0, 0.0, 4.2, 5.36, 5.94, 3.47, 1.98, 2.4, 2.84, 3.2, 4.11, 6.01, 6.01, -9.17, -9.17, -9.48, -9.48, -9.4, -9.8, -10.12, -9.73, -10.04, -10.04, -10.34, -10.34, -10.34, -9.95, -9.66, -9.66, -9.12, -9.12, -9.12, -9.02, -8.5, -8.16, -7.82, -7.82, -7.6, -7.93, -7.69, -7.77, -8.29, -8.3, -8.21, -6.72, -5.78, -4.48, -3.68, -3.68, -4.15, -3.82, -3.67, -3.67, -3.82, -3.11, -2.04, -1.26, -3.32, -5.9, -4.6, -3.25, 0.0, 2.97, 4.96, 6.01, 6.44, 6.08, 6.08, 5.72, 5.37, 4.98, 3.49, 3.48, 3.15, 2.86, 1.49, 1.01, 2.09, 1.67, 1.18, 0.0, 0.0, 0.0, 0.0, 1.07, 0.0, 0.0, 0.0, -2.45, 0.0, 8.85, 3.07, -0.0, -4.24, -4.4, -0.0, -0.0, 7.2, 8.05, 7.6, 3.48, 4.4, 5.51, 4.43, 3.47, 1.55, 2.0, 2.53, 4.0, 6.79, 6.7, -9.17, -9.17, -9.48, -9.48, -9.4, -9.4, -10.12, -10.12, -10.04, -10.04, -10.34, -10.34, -10.34, -9.95, -9.95, -9.66, -9.66, -9.12, -9.12, -9.02, -8.5, -8.5, -7.93, -7.82, -7.6, -7.38, -7.46, -7.77, -8.2, -8.3, -8.42, -7.36, -6.48, -4.81, -4.32, -3.34, -3.21, -3.82, -3.82, -3.67, -3.82, -3.99, -2.83, -1.2, -3.15, -7.27, -8.94, -7.59, -3.25, 0.0, 4.96, 6.01, 5.69, 5.37, 6.08, 5.72, 5.36, 4.98, 3.49, 3.48, 3.48, 2.86, 2.82, 0.95, 1.01, 0.0, 0.0, 0.0, 0.0, 0.0, 0.0, 0.0, 0.0, 0.0, -3.25, -12.96, -0.0, 7.51, 4.95, -0.0, -4.1, -2.97, -0.0, 3.2, 3.48, 4.47, 3.79, 2.4, 5.81, 5.2, 4.11, 2.6, 1.3, 2.6, 3.48, 2.0, 5.2, 6.79, -9.17, -9.17, -9.17, -9.48, -9.4, -9.4, -9.7, -10.12, -10.04, -10.04, -10.34, -10.34, -10.34, -9.95, -9.95, -9.66, -9.66, -9.22, -9.12, -9.12, -8.5, -8.5, -7.93, -7.93, -7.6, -7.38, -7.25, -7.53, -8.2, -8.37, -8.42, -8.07, -7.1, -5.57, -4.81, -3.82, -3.82, -3.82, -3.82, -4.44, -4.8, -4.18, -4.2, -2.06, -2.83, -7.59, -11.45, -11.18, -4.6, 0.0, 2.83, 4.71, 5.69, 5.37, 5.37, 5.72, 5.36, 4.19, 3.84, 3.84, 3.48, 3.15, 2.4, 1.49, 0.0, 0.0, 0.0, 0.0, 1.25, 1.25, 0.0, 0.0, 0.0, 0.0, 0.0, -6.7, -0.0, 1.75, -0.0, -0.0, -2.93, -0.0, -0.0, -0.0, -0.0, 0.0, 0.0, 0.0, 6.26, 6.26, 4.11, 1.41, 1.41, -0.0, -0.0, -0.0, 3.79, 5.2, -9.17, -9.17, -9.17, -9.48, -9.48, -9.4, -9.4, -9.7, -9.73, -9.6, -10.04, -10.04, -10.34, -9.95, -9.66, -9.66, -9.66, -9.22, -8.85, -9.12, -8.61, -8.61, -7.71, -7.93, -7.93, -7.93, -6.9, -7.03, -7.67, -8.37, -8.42, -8.07, -7.26, -6.24, -5.2, -4.3, -4.3, -3.53, -3.82, -4.44, -4.8, -4.6, -4.78, -3.81, -3.11, -4.32, -11.18, -9.39, 0.0, 0.0, 0.0, 2.69, 4.46, 4.22, 5.37, 4.29, 4.74, 4.11, 4.19, 3.84, 3.48, 3.48, 4.29, 3.2, 1.84, 1.84, 0.0, 1.95, 1.4, 1.25, 0.0, -1.14, -1.75, 0.0, 2.17, 0.0, -0.0, -0.0, -0.0, -0.0, -0.0, -0.0, -0.0, -0.0, 0.0, 0.0, 0.0, 0.0, 7.6, 7.6, 3.0, 1.52, -0.0, -0.0, -0.0, -0.0, -0.0, -0.0, -8.85, -8.85, -9.17, -9.17, -9.48, -9.1, -9.4, -9.7, -9.31, -9.31, -9.6, -9.6, -10.04, -9.66, -9.66, -9.66, -9.66, -9.22, -9.22, -8.85, -8.61, -8.61, -8.61, -7.71, -7.71, -7.11, -6.9, -6.69, -7.44, -8.09, -8.01, -8.53, -8.07, -7.1, -6.24, -5.86, -4.68, -4.13, -4.13, -4.44, -4.44, -4.6, -4.99, -4.99, -5.0, -2.62, 0.0, 0.0, 0.0, 0.0, 0.0, 2.54, 2.54, 3.6, 3.4, 4.56, 4.74, 4.43, 4.11, 4.19, 3.79, 3.48, 3.15, 3.4, 3.4, 3.4, 1.84, 0.0, 0.0, 0.0, 0.0, -1.14, -1.84, 0.0, 1.84, 4.71, 8.67, 7.59, -0.0, -3.15, -1.84, -0.0, -0.0, -0.0, 0.0, 0.0, 5.37, 6.4, 7.15, 8.05, 7.2, 3.97, -0.0, -0.0, 0.0, 0.0, 0.0, 0.0, -8.85, -8.85, -9.17, -9.17, -9.48, -9.1, -9.4, -9.4, -9.02, -9.31, -9.31, -9.6, -9.6, -9.66, -9.66, -9.66, -9.66, -9.22, -9.22, -8.85, -9.12, -8.61, -8.61, -8.06, -7.71, -7.71, -6.9, -6.69, -6.9, -7.54, -8.01, -8.12, -8.07, -7.54, -7.1, -6.45, -5.51, -4.68, -4.5, -4.13, -4.92, -5.29, -5.7, -5.7, -4.8, -3.21, -1.14, 0.0, 0.0, 0.0, 0.0, 0.0, 1.84, 1.84, 3.4, 3.4, 4.29, 4.74, 4.43, 4.11, 4.19, 3.79, 3.15, 4.56, 3.4, 3.4, 1.95, 0.0, 0.0, 0.0, -1.14, -2.33, -2.46, -1.33, 0.0, 4.0, 6.32, 7.68, 11.18, -0.0, -2.54, -0.0, -0.0, -4.38, -0.0, 10.73, 8.06, 6.36, 5.6, 7.15, 6.79, 6.79, 3.2, -0.0, 0.0, 0.0, 0.0, 0.0, -8.85, -8.85, -9.17, -9.17, -9.48, -9.1, -9.4, -9.4, -9.31, -9.31, -9.31, -9.6, -9.6, -9.66, -9.66, -9.66, -9.66, -9.22, -9.22, -9.22, -9.49, -8.61, -8.61, -8.06, -8.06, -7.71, -6.9, -7.01, -6.9, -7.54, -8.3, -8.42, -8.53, -8.07, -7.64, -6.45, -6.09, -5.3, -5.3, -4.8, -4.92, -4.92, -5.29, -5.7, -5.29, -3.82, -2.83, -1.16, 0.0, 0.0, 0.0, 0.0, 0.0, 1.73, 1.84, 3.4, 4.29, 4.02, 4.43, 4.43, 4.11, 3.35, 3.35, 2.98, 4.14, 2.99, 1.58, 1.18, 0.0, -1.25, -1.75, -2.33, -2.46, -1.16, 0.0, 2.58, 4.66, 4.88, 7.15, 9.17, -0.0, -2.66, -0.0, -0.0, -0.0, 7.9, 9.39, 7.6, 7.63, 6.71, 8.49, 4.43, -0.0, -6.01, -8.49, -8.49, -8.49, -8.49, -8.85, -8.85, -9.17, -9.17, -9.17, -9.1, -9.1, -9.4, -9.31, -9.31, -9.31, -9.31, -9.6, -9.66, -9.66, -9.66, -9.66, -9.22, -9.22, -9.22, -9.22, -8.99, -8.61, -8.61, -8.06, -8.06, -7.48, -7.01, -6.9, -7.01, -8.3, -8.85, -8.42, -8.12, -7.64, -7.24, -6.62, -6.09, -5.86, -5.09, -5.18, -5.52, -5.9, -5.29, -5.29, -4.6, -3.99, -3.3, -2.46, -1.47, 0.0, 0.0, 0.0, 0.0, 0.0, 3.2, 3.2, 4.29, 4.02, 4.43, 4.11, 3.63, 3.35, 2.98, 2.6, 3.15, 0.0, 0.0, 0.0, -1.07, -2.21, -2.33, -1.26, 0.0, 1.16, 2.28, 2.28, 2.49, 4.05, 5.32, 6.6, -0.0, -0.0, 3.33, 4.38, 5.0, 10.28, 10.28, 9.83, 9.39, 0.0, 0.0, -0.0, -5.06, -7.6, -7.6, -7.6, -7.6, -8.85, -8.85, -9.17, -9.17, -9.48, -9.1, -9.1, -9.4, -9.4, -9.31, -9.31, -9.31, -9.6, -9.6, -9.66, -9.66, -9.66, -9.22, -9.22, -9.22, -9.22, -8.99, -8.99, -8.61, -8.61, -8.06, -7.82, -7.01, -7.13, -7.25, -8.3, -9.17, -9.17, -8.42, -8.42, -7.24, -7.24, -6.62, -5.86, -5.62, -5.7, -5.52, -5.9, -5.64, -5.06, -5.06, -4.78, -3.81, -3.14, -2.46, -1.4, -1.58, 0.0, 0.0, 0.0, 1.73, 3.2, 3.2, 4.02, 4.02, 4.43, 4.11, 3.35, 2.98, 2.66, 1.67, 0.0, 0.0, 0.0, -1.07, -2.06, -1.05, 0.0, 0.0, 0.0, 0.0, 0.0, 1.22, 2.39, 2.39, 3.98, -0.0, -0.0, 2.94, 7.2, 9.17, 9.6, 9.83, 8.94, 0.0, 0.0, -4.92, -5.36, -6.26, -6.71, -6.71, -6.71, -6.71, -8.85, -8.85, -9.17, -9.17, -9.17, -9.48, -9.4, -9.4, -9.4, -9.02, -9.31, -9.31, -9.31, -9.6, -10.04, -10.04, -10.04, -9.6, -9.6, -9.31, -8.94, -9.22, -8.99, -8.99, -8.61, -8.61, -7.82, -7.58, -7.13, -7.25, -8.05, -8.72, -9.17, -8.85, -8.42, -7.73, -7.24, -6.62, -6.36, -5.62, -5.39, -5.7, -5.78, -5.64, -5.64, -5.06, -5.21, -4.56, -4.0, -3.52, -2.69, -1.4, -1.32, -1.58, 0.0, 1.73, 3.0, 3.0, 3.0, 3.76, 3.76, 4.11, 3.35, 3.07, 2.73, 2.99, 1.49, 0.0, 0.0, 0.0, 0.0, 0.0, 0.0, 0.0, 0.0, 0.0, 0.0, 0.0, 1.16, 2.28, 1.62, -11.62, -5.23, -0.0, 6.47, 9.8, 8.18, 5.6, -0.0, 0.0, 0.0, 0.0, -4.92, -6.26, -6.71, -7.15, -7.15, -7.15, -8.85, -8.85, -9.17, -9.17, -9.17, -9.48, -9.4, -9.4, -9.4, -9.31, -9.31, -9.31, -9.6, -9.6, -10.04, -10.04, -10.04, -9.6, -9.6, -9.6, -9.6, -9.22, -8.99, -8.99, -8.99, -8.36, -8.36, -7.58, -7.69, -7.25, -8.05, -9.02, -9.59, -9.26, -8.85, -8.12, -7.24, -6.62, -6.62, -6.36, -6.11, -5.7, -6.05, -6.14, -5.64, -5.64, -5.21, -4.56, -4.98, -4.0, -3.35, -3.8, -2.69, -1.32, 0.0, 0.0, 1.73, 3.0, 2.8, 2.8, 3.76, 2.99, 2.76, 2.53, 2.2, 2.12, 2.12, 1.18, 0.0, -1.14, -2.06, -2.17, 0.0, -1.11, 0.0, 0.0, 0.0, 1.11, 2.17, 2.17, 2.46, -2.97, -5.2, -0.0, 4.3, 8.31, 4.8, 4.92, -0.0, -0.0, 0.0, 0.0, 0.0, 0.0, -6.26, -6.71, -6.71, -6.71, -8.85, -8.85, -9.17, -9.17, -9.17, -9.48, -9.4, -9.4, -9.4, -9.31, -9.31, -9.31, -9.6, -10.04, -10.04, -10.04, -10.04, -10.04, -9.6, -9.6, -9.6, -9.6, -9.49, -9.49, -8.72, -8.72, -8.36, -7.93, -7.69, -7.49, -8.05, -9.02, -9.59, -9.26, -9.26, -8.12, -7.73, -6.97, -6.62, -6.36, -6.44, -6.17, -6.05, -6.14, -6.14, -5.38, -5.76, -5.21, -4.98, -4.74, -4.44, -3.35, -3.8, -2.54, -1.58, 0.0, 1.73, 1.73, 3.0, 2.8, 2.6, 2.99, 2.76, 2.76, 2.2, 2.32, 1.98, 2.12, 0.0, -1.07, -3.17, -4.21, -4.44, -1.11, 0.0, 0.0, 1.05, 1.05, 2.06, 2.06, 2.06, 0.0, 0.0, 4.6, 5.63, 9.3, 5.51, 4.47, 4.47, -0.0, -4.43, 0.0, 0.0, 0.0, -5.81, -5.81, -5.81, -5.81, -8.85, -8.85, -8.85, -9.17, -9.17, -9.17, -9.1, -9.4, -9.4, -9.31, -9.31, -9.6, -9.6, -10.04, -10.04, -10.04, -10.04, -10.04, -10.04, -10.04, -9.6, -9.6, -9.6, -9.22, -9.22, -8.72, -8.72, -8.46, -8.05, -8.45, -8.59, -9.02, -9.59, -9.59, -9.26, -8.12, -8.12, -7.44, -6.71, -6.36, -6.44, -6.44, -6.51, -6.14, -6.14, -5.86, -5.76, -5.21, -5.21, -4.74, -4.74, -4.21, -4.21, -2.69, -1.58, 0.0, 0.0, 1.73, 1.63, 1.32, 2.16, 2.16, 2.76, 2.76, 2.4, 2.4, 2.12, 1.98, 1.03, 0.0, -2.26, -4.46, -5.72, -5.72, -1.11, 0.0, 0.0, 1.05, 1.05, 1.05, 1.05, 1.2, 6.7, 6.32, 8.05, 7.19, 5.37, 3.58, 4.47, 4.47, -0.0, -5.37, -6.26, -4.92, -4.92, -5.36, -5.36, -5.36, -8.85, -8.85, -8.85, -9.17, -9.17, -9.17, -9.1, -9.4, -9.4, -9.7, -9.31, -9.6, -9.6, -10.04, -10.04, -10.04, -10.04, -10.04, -10.04, -10.04, -10.04, -9.6, -9.6, -9.6, -9.22, -9.22, -8.46, -8.46, -8.56, -8.18, -8.59, -9.17, -9.59, -9.59, -9.26, -8.53, -8.12, -7.44, -7.15, -6.81, -6.54, -6.44, -6.51, -6.23, -6.14, -5.86, -5.86, -5.76, -5.21, -5.63, -4.74, -4.74, -4.21, -3.8, -2.54, -1.58, 0.0, 0.0, 1.73, 1.32, 1.23, 2.16, 2.16, 2.99, 2.6, 1.84, 2.49, 2.32, 2.12, 0.95, 0.0, -2.09, -3.6, -5.31, -3.52, -2.46, 0.0, 0.0, 0.0, 0.0, 0.0, 2.33, 7.81, 4.66, 6.14, 7.93, 7.27, 4.4, 3.58, 4.47, -0.0, -5.06, -6.71, -4.92, -4.47, -3.48, -3.48, -3.48, -8.85, -8.85, -8.85, -8.85, -9.17, -9.17, -9.48, -9.1, -9.4, -9.4, -9.31, -9.31, -10.04, -10.04, -10.04, -10.04, -10.04, -10.04, -10.04, -10.34, -10.04, -10.04, -9.6, -9.6, -9.6, -8.94, -8.94, -8.84, -8.56, -8.18, -9.06, -9.17, -9.59, -9.26, -9.26, -8.93, -8.12, -7.82, -7.15, -7.15, -6.87, -6.87, -6.51, -6.23, -6.23, -6.28, -5.86, -5.13, -5.76, -5.21, -5.36, -4.74, -4.21, -4.71, -3.8, -2.99, 0.0, 0.0, 0.0, 0.0, 1.32, 1.23, 2.32, 2.32, 2.8, 1.98, 2.6, 2.6, 2.26, 1.01, 0.0, 0.0, 0.0, 0.0, -1.4, -2.69, -1.2, 0.0, 0.0, 0.0, 1.14, 3.99, 3.15, -0.0, 2.57, 6.2, 5.95, 3.97, 3.6, 3.6, 3.16, -0.0, -5.37, -4.8, -3.48, -0.0, -0.0, -0.0, -9.23, -9.23, -8.85, -8.85, -8.85, -9.17, -9.48, -9.4, -9.4, -9.4, -9.02, -9.31, -10.04, -10.04, -10.04, -10.04, -10.04, -10.04, -10.04, -10.34, -10.34, -10.04, -10.04, -9.6, -9.31, -9.31, -9.31, -9.02, -8.56, -9.06, -9.48, -9.56, -9.96, -9.26, -9.26, -8.93, -8.12, -7.82, -7.15, -7.15, -6.87, -6.58, -6.92, -6.62, -6.23, -5.94, -5.86, -5.86, -5.49, -5.76, -4.96, -5.36, -4.94, -4.94, -4.71, -3.6, -1.58, 0.0, 0.0, 0.0, 0.0, 1.32, 1.23, 2.32, 2.49, 3.45, 3.0, 2.6, 2.26, 1.01, 0.0, 1.0, 1.0, 1.95, 1.07, 0.0, -1.14, -1.14, 0.0, 0.0, 3.6, 5.15, 6.36, -0.0, -0.0, 2.19, 3.8, 2.98, 2.23, 1.8, 2.6, -0.0, -0.0, -4.43, -4.11, -2.2, -2.2, -2.2, -9.23, -9.23, -9.23, -8.85, -8.85, -8.85, -9.17, -9.1, -9.1, -9.1, -9.4, -9.73, -9.73, -10.04, -10.04, -10.04, -10.04, -10.04, -10.04, -10.34, -10.75, -10.75, -10.75, -10.04, -9.73, -9.31, -9.31, -9.02, -8.95, -9.06, -9.56, -9.56, -9.62, -9.62, -9.26, -8.93, -8.12, -7.82, -7.15, -7.15, -6.87, -6.58, -6.62, -6.62, -6.23, -5.94, -5.94, -5.86, -5.86, -5.76, -5.76, -5.89, -5.82, -4.94, -4.71, -3.6, -2.99, -1.49, 0.0, 0.0, 0.0, 0.0, 1.32, 2.49, 2.49, 3.45, 3.45, 3.45, 2.8, 1.07, 0.0, 1.0, 1.05, 1.05, 1.05, 0.0, -1.2, -1.2, 0.0, 1.2, 4.46, 5.69, 5.6, 5.1, 1.52, 1.62, 2.66, 2.4, 1.19, 1.27, -0.0, -0.0, -0.0, -4.74, -3.79, -2.6, -2.6, -2.6, -9.23, -9.23, -9.23, -8.85, -9.17, -9.17, -9.17, -8.79, -9.1, -9.1, -9.4, -9.73, -9.73, -10.04, -10.04, -10.04, -10.04, -10.04, -10.43, -10.43, -10.75, -10.75, -10.75, -10.43, -9.73, -9.73, -9.73, -9.02, -9.1, -9.48, -9.56, -9.23, -9.62, -9.62, -8.93, -8.93, -8.53, -7.82, -7.44, -7.15, -7.15, -6.87, -6.92, -6.92, -6.62, -6.23, -5.94, -6.28, -5.86, -6.24, -5.94, -5.89, -5.36, -5.53, -4.94, -4.71, -3.6, -1.58, 0.0, 0.0, 0.0, 0.0, 0.0, 1.4, 3.2, 4.29, 4.29, 4.29, 3.45, 1.18, 1.07, 0.94, 0.94, 0.94, 0.0, -1.0, -2.21, -2.46, 0.0, 1.2, 5.15, 4.68, 5.84, 6.23, 2.58, -0.0, 1.18, 0.96, 1.05, -0.0, -0.0, -3.4, -5.06, -5.06, -5.06, -3.4, -3.4, -3.4, -9.23, -9.23, -9.23, -8.85, -9.17, -9.17, -9.17, -9.48, -9.1, -9.1, -9.8, -9.8, -9.73, -10.04, -10.04, -10.04, -10.04, -10.43, -10.43, -10.75, -10.75, -10.75, -10.75, -10.43, -9.73, -9.73, -9.43, -9.4, -9.48, -9.9, -9.9, -9.23, -9.62, -9.27, -8.93, -8.93, -8.22, -8.22, -7.44, -7.15, -7.15, -6.87, -7.22, -6.92, -6.92, -6.23, -6.23, -6.28, -6.28, -6.64, -6.32, -5.94, -5.89, -5.82, -5.53, -5.44, -3.6, -2.99, -1.58, -1.49, -1.4, 0.0, 0.0, 1.4, 3.2, 3.2, 4.29, 4.29, 2.66, 2.66, 2.66, 2.26, 1.96, 1.96, 0.0, 0.0, -1.14, -1.14, -1.2, 2.33, 3.99, 3.6, 6.01, 7.06, 3.52, -0.0, -0.0, -0.0, -0.0, -0.0, -0.0, -3.2, -5.37, -5.69, -6.01, -6.01, -6.01, -6.01, -9.23, -9.23, -9.23, -9.23, -9.17, -9.17, -9.17, -9.48, -9.1, -9.1, -9.8, -9.8, -10.12, -10.12, -10.43, -10.12, -10.12, -10.43, -10.43, -10.43, -10.75, -10.75, -10.75, -10.75, -10.12, -9.8, -9.8, -9.8, -9.85, -9.9, -9.9, -9.56, -9.62, -9.27, -9.27, -9.27, -8.53, -8.22, -7.85, -7.55, -7.55, -7.25, -7.22, -7.22, -6.92, -7.27, -6.95, -6.58, -6.28, -6.28, -6.64, -5.94, -6.32, -5.89, -5.53, -4.94, -4.46, -3.6, -2.99, -1.49, -1.49, -1.25, 0.0, 0.0, 1.73, 3.97, 3.97, 4.22, 3.4, 3.2, 2.32, 2.4, 3.2, 1.96, 1.01, 0.94, 0.0, 0.0, 0.0, 2.33, 2.06, 2.98, 4.71, 8.05, 3.7, -0.0, -0.0, -0.0, -0.0, -0.0, -0.0, -2.69, -4.0, -4.0, -6.32, -6.01, -6.01, -6.01, -9.23, -9.23, -9.23, -9.23, -8.85, -9.17, -9.17, -9.17, -9.48, -9.48, -9.8, -9.8, -10.12, -10.12, -10.12, -10.12, -10.12, -10.12, -10.43, -10.43, -10.43, -10.75, -10.75, -10.43, -10.48, -10.15, -9.8, -9.85, -10.55, -10.19, -10.19, -9.56, -8.9, -9.27, -9.27, -9.27, -8.9, -8.22, -7.85, -7.85, -7.55, -7.55, -7.52, -7.22, -7.59, -7.27, -7.27, -6.95, -6.64, -6.64, -6.64, -6.32, -5.94, -5.89, -6.01, -5.53, -4.71, -3.6, -2.54, -2.54, -2.4, -1.25, -1.25, 0.0, 0.0, 2.4, 4.22, 4.22, 4.46, 4.22, 3.0, 2.82, 3.45, 1.49, 0.95, 1.07, 0.94, 1.0, 0.0, 0.0, 1.05, 2.06, 4.21, 7.89, 4.0, -0.0, -1.64, -1.52, -1.22, -1.39, -1.47, -2.06, -2.83, -3.8, -6.01, -6.01, -6.01, -6.01, -9.23, -9.23, -9.56, -9.56, -9.17, -9.53, -9.53, -9.53, -9.53, -9.48, -9.48, -9.8, -10.12, -10.12, -10.12, -10.12, -10.12, -10.12, -10.12, -10.43, -10.43, -10.43, -10.43, -10.81, -10.48, -10.15, -10.52, -10.18, -10.81, -10.19, -10.19, -9.56, -9.21, -9.27, -9.27, -8.93, -8.57, -8.57, -8.22, -7.55, -7.55, -7.55, -7.9, -7.22, -7.59, -7.59, -7.61, -7.61, -7.28, -6.64, -6.64, -6.64, -6.32, -6.32, -5.89, -5.53, -4.94, -4.71, -3.6, -3.6, -2.54, -2.4, -1.25, -1.49, 0.0, 2.4, 2.4, 2.54, 2.54, 2.4, 1.63, 2.6, 1.99, 1.84, 1.03, 1.01, 0.89, 0.0, 0.0, 0.0, 0.0, 1.14, 3.17, 6.28, 7.89, -0.0, -1.33, -0.0, -1.22, -1.33, -1.54, -1.67, -3.8, -4.71, -6.01, -7.6, -7.6, -7.6, -9.23, -9.23, -9.56, -9.56, -9.17, -9.53, -9.53, -9.53, -9.53, -9.48, -9.48, -9.8, -10.12, -10.12, -10.12, -10.12, -10.12, -10.12, -10.12, -10.43, -10.43, -10.43, -10.43, -10.81, -10.48, -10.15, -10.52, -10.18, -10.81, -10.19, -10.19, -9.56, -9.21, -9.27, -9.27, -8.93, -8.57, -8.57, -8.22, -7.55, -7.55, -7.55, -7.9, -7.22, -7.59, -7.59, -7.61, -7.61, -7.28, -6.64, -6.64, -6.64, -6.32, -6.32, -5.89, -5.53, -4.94, -4.71, -3.6, -3.6, -2.54, -2.4, -1.25, -1.49, 0.0, 2.4, 2.4, 2.54, 2.54, 2.4, 1.63, 2.6, 1.99, 1.84, 1.03, 1.01, 0.94, 0.0, 0.0, 0.0, 0.0, 1.14, 3.6, 5.69, 7.63, 7.15, 1.33, -0.0, -0.0, -0.0, -1.39, -2.97, -3.8, -4.71, -6.01, -7.6, -7.6, -7.6]}]